Observation data for Lesley on 12/07/2018      Previous  Date       Current Mesonet Observations  Soil Data  Daily Summary Page  Observations in Plain Language
KLE1 070600Z 05006KT 03/M04 A3034 RMK A01 T00281043  RH  060%=      5-min Rain = 0
KLE1 070601Z 05007KT 03/M04 A3034 RMK A01 T00281043  RH  060%=      5-min Rain = 0
KLE1 070602Z 06007KT 03/M04 A3034 RMK A01 T00281044  RH  059%=      5-min Rain = 0
KLE1 070603Z 05006KT 03/M04 A3034 RMK A01 T00281044  RH  059%=      5-min Rain = 0
KLE1 070604Z 06006KT 03/M04 A3034 RMK A01 T00281044  RH  059%=      5-min Rain = 0
KLE1 070605Z 05006KT 03/M04 A3034 RMK A01 T00281044  RH  059%=      5-min Rain = 0
KLE1 070606Z 06005KT 03/M04 A3034 RMK A01 T00281044  RH  059%=      5-min Rain = 0
KLE1 070607Z 06005KT 03/M04 A3034 RMK A01 T00281044  RH  059%=      5-min Rain = 0
KLE1 070608Z 06006KT 03/M04 A3034 RMK A01 T00281044  RH  059%=      5-min Rain = 0
KLE1 070609Z 06005KT 03/M05 A3034 RMK A01 T00271045  RH  059%=      5-min Rain = 0
KLE1 070610Z 06005KT 03/M05 A3034 RMK A01 T00271045  RH  059%=      5-min Rain = 0
KLE1 070611Z 06007KT 03/M05 A3034 RMK A01 T00271045  RH  059%=      5-min Rain = 0
KLE1 070612Z 05006KT 03/M05 A3034 RMK A01 T00271046  RH  059%=      5-min Rain = 0
KLE1 070613Z 05007KT 03/M05 A3034 RMK A01 T00271046  RH  059%=      5-min Rain = 0
KLE1 070614Z 06006KT 03/M05 A3034 RMK A01 T00271045  RH  059%=      5-min Rain = 0
KLE1 070615Z 06005KT 03/M05 A3034 RMK A01 T00271045  RH  059%=      5-min Rain = 0
KLE1 070616Z 05005KT 03/M05 A3034 RMK A01 T00271045  RH  059%=      5-min Rain = 0
KLE1 070617Z 06006KT 03/M05 A3034 RMK A01 T00271045  RH  059%=      5-min Rain = 0
KLE1 070618Z 05006KT 03/M05 A3034 RMK A01 T00271045  RH  059%=      5-min Rain = 0
KLE1 070619Z 05006KT 03/M05 A3034 RMK A01 T00271045  RH  059%=      5-min Rain = 0
KLE1 070620Z 05005KT 03/M05 A3034 RMK A01 T00271045  RH  059%=      5-min Rain = 0
KLE1 070621Z 05006KT 03/M05 A3034 RMK A01 T00271045  RH  059%=      5-min Rain = 0
KLE1 070622Z 05006KT 03/M05 A3034 RMK A01 T00271045  RH  059%=      5-min Rain = 0
KLE1 070623Z 05006KT 03/M05 A3034 RMK A01 T00271045  RH  059%=      5-min Rain = 0
KLE1 070624Z 05005KT 03/M05 A3034 RMK A01 T00271045  RH  059%=      5-min Rain = 0
KLE1 070625Z 05004KT 03/M04 A3034 RMK A01 T00271044  RH  059%=      5-min Rain = 0
KLE1 070626Z 04005KT 03/M04 A3034 RMK A01 T00271044  RH  059%=      5-min Rain = 0
KLE1 070627Z 04005KT 03/M04 A3034 RMK A01 T00271044  RH  059%=      5-min Rain = 0
KLE1 070628Z 04006KT 03/M04 A3034 RMK A01 T00271044  RH  059%=      5-min Rain = 0
KLE1 070629Z 05005KT 03/M05 A3034 RMK A01 T00261045  RH  059%=      5-min Rain = 0
KLE1 070630Z 04005KT 03/M05 A3034 RMK A01 T00271045  RH  059%=      5-min Rain = 0
KLE1 070631Z 05005KT 03/M05 A3033 RMK A01 T00261045  RH  059%=      5-min Rain = 0
KLE1 070632Z 05005KT 03/M04 A3033 RMK A01 T00271044  RH  060%=      5-min Rain = 0
KLE1 070633Z 04004KT 03/M04 A3033 RMK A01 T00271044  RH  059%=      5-min Rain = 0
KLE1 070634Z 06003KT 03/M05 A3034 RMK A01 T00261045  RH  060%=      5-min Rain = 0
KLE1 070635Z 05003KT 03/M04 A3034 RMK A01 T00261044  RH  060%=      5-min Rain = 0
KLE1 070636Z 05003KT 03/M04 A3034 RMK A01 T00261044  RH  060%=      5-min Rain = 0
KLE1 070637Z 06004KT 03/M05 A3034 RMK A01 T00261045  RH  060%=      5-min Rain = 0
KLE1 070638Z 06004KT 03/M04 A3034 RMK A01 T00261044  RH  060%=      5-min Rain = 0
KLE1 070639Z 06004KT 03/M05 A3034 RMK A01 T00261045  RH  060%=      5-min Rain = 0
KLE1 070640Z 06005KT 03/M05 A3034 RMK A01 T00261045  RH  060%=      5-min Rain = 0
KLE1 070641Z 06007KT 03/M05 A3034 RMK A01 T00261045  RH  059%=      5-min Rain = 0
KLE1 070642Z 06006KT 03/M05 A3033 RMK A01 T00261046  RH  059%=      5-min Rain = 0
KLE1 070643Z 06005KT 03/M05 A3033 RMK A01 T00261046  RH  059%=      5-min Rain = 0
KLE1 070644Z 05005KT 03/M05 A3034 RMK A01 T00261046  RH  059%=      5-min Rain = 0
KLE1 070645Z 05006KT 03/M05 A3034 RMK A01 T00261046  RH  059%=      5-min Rain = 0
KLE1 070646Z 05005KT 03/M05 A3034 RMK A01 T00261046  RH  059%=      5-min Rain = 0
KLE1 070647Z 06004KT 03/M05 A3034 RMK A01 T00261046  RH  059%=      5-min Rain = 0
KLE1 070648Z 06005KT 03/M05 A3034 RMK A01 T00261046  RH  059%=      5-min Rain = 0
KLE1 070649Z 06004KT 03/M05 A3034 RMK A01 T00261046  RH  059%=      5-min Rain = 0
KLE1 070650Z 06004KT 03/M05 A3034 RMK A01 T00261046  RH  059%=      5-min Rain = 0
KLE1 070651Z 06003KT 03/M05 A3034 RMK A01 T00261046  RH  059%=      5-min Rain = 0
KLE1 070652Z 06004KT 03/M05 A3034 RMK A01 T00261045  RH  059%=      5-min Rain = 0
KLE1 070653Z 06004KT 03/M05 A3034 RMK A01 T00261045  RH  060%=      5-min Rain = 0
KLE1 070654Z 05004KT 03/M04 A3034 RMK A01 T00261044  RH  060%=      5-min Rain = 0
KLE1 070655Z 05005KT 03/M04 A3033 RMK A01 T00261044  RH  060%=      5-min Rain = 0
KLE1 070656Z 05004KT 03/M04 A3033 RMK A01 T00261044  RH  060%=      5-min Rain = 0
KLE1 070657Z 05004KT 03/M05 A3033 RMK A01 T00261045  RH  060%=      5-min Rain = 0
KLE1 070658Z 05004KT 03/M05 A3033 RMK A01 T00261045  RH  060%=      5-min Rain = 0
KLE1 070659Z 05005KT 03/M04 A3033 RMK A01 T00261044  RH  060%=      5-min Rain = 0
KLE1 070700Z 04006KT 03/M04 A3033 RMK A01 T00261044  RH  060%=      5-min Rain = 0
KLE1 070701Z 05008KT 03/M05 A3033 RMK A01 T00251045  RH  060%=      5-min Rain = 0
KLE1 070702Z 05008KT 03/M04 A3033 RMK A01 T00251044  RH  060%=      5-min Rain = 0
KLE1 070703Z 04008KT 03/M04 A3033 RMK A01 T00251043  RH  060%=      5-min Rain = 0
KLE1 070704Z 03008KT 03/M04 A3033 RMK A01 T00251043  RH  061%=      5-min Rain = 0
KLE1 070705Z 04008KT 03/M04 A3033 RMK A01 T00251043  RH  061%=      5-min Rain = 0
KLE1 070706Z 03007KT 03/M04 A3033 RMK A01 T00251043  RH  061%=      5-min Rain = 0
KLE1 070707Z 04007KT 03/M04 A3033 RMK A01 T00251042  RH  061%=      5-min Rain = 0
KLE1 070708Z 04007KT 03/M04 A3033 RMK A01 T00251042  RH  061%=      5-min Rain = 0
KLE1 070709Z 04007KT 03/M04 A3033 RMK A01 T00251042  RH  062%=      5-min Rain = 0
KLE1 070710Z 04006KT 02/M04 A3033 RMK A01 T00241042  RH  062%=      5-min Rain = 0
KLE1 070711Z 04007KT 02/M04 A3033 RMK A01 T00241042  RH  062%=      5-min Rain = 0
KLE1 070712Z 04006KT 02/M04 A3033 RMK A01 T00241042  RH  062%=      5-min Rain = 0
KLE1 070713Z 03006KT 02/M04 A3033 RMK A01 T00241042  RH  062%=      5-min Rain = 0
KLE1 070714Z 03007KT 02/M04 A3033 RMK A01 T00241042  RH  062%=      5-min Rain = 0
KLE1 070715Z 03008KT 02/M04 A3033 RMK A01 T00231042  RH  062%=      5-min Rain = 0
KLE1 070716Z 03007KT 02/M04 A3033 RMK A01 T00241042  RH  062%=      5-min Rain = 0
KLE1 070717Z 02006KT 02/M04 A3033 RMK A01 T00241041  RH  062%=      5-min Rain = 0
KLE1 070718Z 02006KT 02/M04 A3034 RMK A01 T00231042  RH  062%=      5-min Rain = 0
KLE1 070719Z 02006KT 02/M04 A3034 RMK A01 T00231042  RH  062%=      5-min Rain = 0
KLE1 070720Z 02006KT 02/M04 A3034 RMK A01 T00241041  RH  062%=      5-min Rain = 0
KLE1 070721Z 02007KT 02/M04 A3034 RMK A01 T00231041  RH  062%=      5-min Rain = 0
KLE1 070722Z 02006KT 02/M04 A3034 RMK A01 T00231041  RH  062%=      5-min Rain = 0
KLE1 070723Z 02006KT 02/M04 A3034 RMK A01 T00231041  RH  063%=      5-min Rain = 0
KLE1 070724Z 02006KT 02/M04 A3034 RMK A01 T00231041  RH  063%=      5-min Rain = 0
KLE1 070725Z 01006KT 02/M04 A3034 RMK A01 T00231041  RH  063%=      5-min Rain = 0
KLE1 070726Z 02006KT 02/M04 A3034 RMK A01 T00231041  RH  063%=      5-min Rain = 0
KLE1 070727Z 02007KT 02/M04 A3034 RMK A01 T00231040  RH  063%=      5-min Rain = 0
KLE1 070728Z 03006KT 02/M04 A3034 RMK A01 T00231040  RH  063%=      5-min Rain = 0
KLE1 070729Z 03007KT 02/M04 A3034 RMK A01 T00231040  RH  063%=      5-min Rain = 0
KLE1 070730Z 03005KT 02/M04 A3034 RMK A01 T00231040  RH  063%=      5-min Rain = 0
KLE1 070731Z 02006KT 02/M04 A3034 RMK A01 T00231040  RH  063%=      5-min Rain = 0
KLE1 070732Z 03006KT 02/M04 A3034 RMK A01 T00231040  RH  063%=      5-min Rain = 0
KLE1 070733Z 03006KT 02/M04 A3034 RMK A01 T00231040  RH  063%=      5-min Rain = 0
KLE1 070734Z 03006KT 02/M04 A3034 RMK A01 T00231040  RH  063%=      5-min Rain = 0
KLE1 070735Z 03006KT 02/M04 A3034 RMK A01 T00231039  RH  063%=      5-min Rain = 0
KLE1 070736Z 03005KT 02/M04 A3034 RMK A01 T00231039  RH  063%=      5-min Rain = 0
KLE1 070737Z 03005KT 02/M04 A3034 RMK A01 T00231039  RH  064%=      5-min Rain = 0
KLE1 070738Z 03006KT 02/M04 A3034 RMK A01 T00231039  RH  064%=      5-min Rain = 0
KLE1 070739Z 03007KT 02/M04 A3033 RMK A01 T00231039  RH  064%=      5-min Rain = 0
KLE1 070740Z 04008KT 02/M04 A3033 RMK A01 T00231039  RH  064%=      5-min Rain = 0
KLE1 070741Z 03008KT 02/M04 A3033 RMK A01 T00231039  RH  063%=      5-min Rain = 0
KLE1 070742Z 04008KT 02/M04 A3033 RMK A01 T00231039  RH  064%=      5-min Rain = 0
KLE1 070743Z 04008KT 02/M04 A3033 RMK A01 T00231039  RH  064%=      5-min Rain = 0
KLE1 070744Z 03007KT 02/M04 A3033 RMK A01 T00231039  RH  064%=      5-min Rain = 0
KLE1 070745Z 04005KT 02/M04 A3033 RMK A01 T00231038  RH  064%=      5-min Rain = 0
KLE1 070746Z 04006KT 02/M04 A3033 RMK A01 T00231038  RH  064%=      5-min Rain = 0
KLE1 070747Z 04006KT 02/M04 A3033 RMK A01 T00231038  RH  064%=      5-min Rain = 0
KLE1 070748Z 03007KT 02/M04 A3033 RMK A01 T00231038  RH  064%=      5-min Rain = 0
KLE1 070749Z 04007KT 02/M04 A3033 RMK A01 T00231038  RH  064%=      5-min Rain = 0
KLE1 070750Z 04006KT 02/M04 A3033 RMK A01 T00221038  RH  064%=      5-min Rain = 0
KLE1 070751Z 04008KT 02/M04 A3033 RMK A01 T00221038  RH  065%=      5-min Rain = 0
KLE1 070752Z 04008KT 02/M04 A3033 RMK A01 T00221037  RH  065%=      5-min Rain = 0
KLE1 070753Z 04008KT 02/M04 A3033 RMK A01 T00221037  RH  065%=      5-min Rain = 0
KLE1 070754Z 04009KT 02/M04 A3033 RMK A01 T00221037  RH  065%=      5-min Rain = 0
KLE1 070755Z 04008KT 02/M04 A3033 RMK A01 T00221036  RH  065%=      5-min Rain = 0
KLE1 070756Z 04009KT 02/M04 A3033 RMK A01 T00221036  RH  065%=      5-min Rain = 0
KLE1 070757Z 04008KT 02/M04 A3033 RMK A01 T00221036  RH  065%=      5-min Rain = 0
KLE1 070758Z 04008KT 02/M04 A3033 RMK A01 T00221036  RH  066%=      5-min Rain = 0
KLE1 070759Z 04008KT 02/M04 A3033 RMK A01 T00221035  RH  066%=      5-min Rain = 0
KLE1 070800Z 05007KT 02/M04 A3033 RMK A01 T00221036  RH  066%=      5-min Rain = 0
KLE1 070801Z 06007KT 02/M04 A3033 RMK A01 T00221036  RH  066%=      5-min Rain = 0
KLE1 070802Z 05009KT 02/M04 A3033 RMK A01 T00221035  RH  066%=      5-min Rain = 0
KLE1 070803Z 05008KT 02/M04 A3033 RMK A01 T00221036  RH  066%=      5-min Rain = 0
KLE1 070804Z 06007KT 02/M04 A3033 RMK A01 T00221035  RH  066%=      5-min Rain = 0
KLE1 070805Z 05006KT 02/M04 A3033 RMK A01 T00221035  RH  066%=      5-min Rain = 0
KLE1 070806Z 05007KT 02/M03 A3033 RMK A01 T00221034  RH  066%=      5-min Rain = 0
KLE1 070807Z 05008KT 02/M04 A3033 RMK A01 T00221035  RH  066%=      5-min Rain = 0
KLE1 070808Z 06007KT 02/M04 A3033 RMK A01 T00221035  RH  066%=      5-min Rain = 0
KLE1 070809Z 05007KT 02/M04 A3033 RMK A01 T00221035  RH  066%=      5-min Rain = 0
KLE1 070810Z 05007KT 02/M04 A3033 RMK A01 T00221035  RH  066%=      5-min Rain = 0
KLE1 070811Z 05007KT 02/M04 A3034 RMK A01 T00221035  RH  066%=      5-min Rain = 0
KLE1 070812Z 05005KT 02/M04 A3034 RMK A01 T00221035  RH  066%=      5-min Rain = 0
KLE1 070813Z 06004KT 02/M03 A3034 RMK A01 T00221034  RH  066%=      5-min Rain = 0
KLE1 070814Z 06005KT 02/M04 A3034 RMK A01 T00221035  RH  066%=      5-min Rain = 0
KLE1 070815Z 05004KT 02/M04 A3035 RMK A01 T00221035  RH  066%=      5-min Rain = 0
KLE1 070816Z 06004KT 02/M03 A3035 RMK A01 T00221034  RH  066%=      5-min Rain = 0
KLE1 070817Z 06004KT 02/M03 A3035 RMK A01 T00221034  RH  066%=      5-min Rain = 0
KLE1 070818Z 06004KT 02/M04 A3035 RMK A01 T00221035  RH  066%=      5-min Rain = 0
KLE1 070819Z 06005KT 02/M04 A3034 RMK A01 T00221035  RH  066%=      5-min Rain = 0
KLE1 070820Z 06005KT 02/M04 A3034 RMK A01 T00211035  RH  066%=      5-min Rain = 0
KLE1 070821Z 05005KT 02/M03 A3034 RMK A01 T00211034  RH  067%=      5-min Rain = 0
KLE1 070822Z 05006KT 02/M03 A3034 RMK A01 T00211034  RH  067%=      5-min Rain = 0
KLE1 070823Z 05007KT 02/M03 A3034 RMK A01 T00211034  RH  067%=      5-min Rain = 0
KLE1 070824Z 06006KT 02/M03 A3034 RMK A01 T00211034  RH  067%=      5-min Rain = 0
KLE1 070825Z 05005KT 02/M03 A3034 RMK A01 T00211034  RH  067%=      5-min Rain = 0
KLE1 070826Z 04006KT 02/M03 A3034 RMK A01 T00211034  RH  067%=      5-min Rain = 0
KLE1 070827Z 04007KT 02/M03 A3034 RMK A01 T00211034  RH  067%=      5-min Rain = 0
KLE1 070828Z 05006KT 02/M03 A3034 RMK A01 T00211033  RH  067%=      5-min Rain = 0
KLE1 070829Z 05006KT 02/M03 A3034 RMK A01 T00211033  RH  067%=      5-min Rain = 0
KLE1 070830Z 05007KT 02/M03 A3034 RMK A01 T00211033  RH  067%=      5-min Rain = 0
KLE1 070831Z 04006KT 02/M03 A3034 RMK A01 T00211033  RH  067%=      5-min Rain = 0
KLE1 070832Z 05006KT 02/M03 A3034 RMK A01 T00211033  RH  068%=      5-min Rain = 0
KLE1 070833Z 05006KT 02/M03 A3034 RMK A01 T00211032  RH  068%=      5-min Rain = 0
KLE1 070834Z 05007KT 02/M03 A3034 RMK A01 T00211032  RH  068%=      5-min Rain = 0
KLE1 070835Z 05006KT 02/M03 A3034 RMK A01 T00211032  RH  068%=      5-min Rain = 0
KLE1 070836Z 05006KT 02/M03 A3034 RMK A01 T00211032  RH  068%=      5-min Rain = 0
KLE1 070837Z 05006KT 02/M03 A3034 RMK A01 T00211032  RH  068%=      5-min Rain = 0
KLE1 070838Z 05006KT 02/M03 A3034 RMK A01 T00211033  RH  068%=      5-min Rain = 0
KLE1 070839Z 05005KT 02/M03 A3034 RMK A01 T00211032  RH  068%=      5-min Rain = 0
KLE1 070840Z 05005KT 02/M03 A3035 RMK A01 T00211032  RH  068%=      5-min Rain = 0
KLE1 070841Z 05005KT 02/M03 A3035 RMK A01 T00211032  RH  068%=      5-min Rain = 0
KLE1 070842Z 05005KT 02/M03 A3034 RMK A01 T00211032  RH  068%=      5-min Rain = 0
KLE1 070843Z 04005KT 02/M03 A3034 RMK A01 T00211032  RH  068%=      5-min Rain = 0
KLE1 070844Z 04005KT 02/M03 A3034 RMK A01 T00211031  RH  068%=      5-min Rain = 0
KLE1 070845Z 05006KT 02/M03 A3034 RMK A01 T00211031  RH  068%=      5-min Rain = 0
KLE1 070846Z 05006KT 02/M03 A3034 RMK A01 T00211031  RH  068%=      5-min Rain = 0
KLE1 070847Z 06006KT 02/M03 A3034 RMK A01 T00211031  RH  069%=      5-min Rain = 0
KLE1 070848Z 06007KT 02/M03 A3034 RMK A01 T00211031  RH  069%=      5-min Rain = 0
KLE1 070849Z 06007KT 02/M03 A3034 RMK A01 T00201031  RH  069%=      5-min Rain = 0
KLE1 070850Z 06006KT 02/M03 A3034 RMK A01 T00211030  RH  069%=      5-min Rain = 0
KLE1 070851Z 06007KT 02/M03 A3034 RMK A01 T00211030  RH  069%=      5-min Rain = 0
KLE1 070852Z 05006KT 02/M03 A3035 RMK A01 T00201031  RH  069%=      5-min Rain = 0
KLE1 070853Z 06005KT 02/M03 A3035 RMK A01 T00211030  RH  069%=      5-min Rain = 0
KLE1 070854Z 06006KT 02/M03 A3035 RMK A01 T00211030  RH  069%=      5-min Rain = 0
KLE1 070855Z 06006KT 02/M03 A3035 RMK A01 T00201030  RH  069%=      5-min Rain = 0
KLE1 070856Z 06006KT 02/M03 A3035 RMK A01 T00201031  RH  069%=      5-min Rain = 0
KLE1 070857Z 06006KT 02/M03 A3035 RMK A01 T00201031  RH  069%=      5-min Rain = 0
KLE1 070858Z 06006KT 02/M03 A3035 RMK A01 T00211031  RH  069%=      5-min Rain = 0
KLE1 070859Z 06005KT 02/M03 A3035 RMK A01 T00211031  RH  069%=      5-min Rain = 0
KLE1 070900Z 06006KT 02/M03 A3035 RMK A01 T00211031  RH  069%=      5-min Rain = 0
KLE1 070901Z 06004KT 02/M03 A3035 RMK A01 T00201031  RH  069%=      5-min Rain = 0
KLE1 070902Z 06006KT 02/M03 A3035 RMK A01 T00201031  RH  069%=      5-min Rain = 0
KLE1 070903Z 06007KT 02/M03 A3035 RMK A01 T00211031  RH  069%=      5-min Rain = 0
KLE1 070904Z 06007KT 02/M03 A3035 RMK A01 T00211031  RH  069%=      5-min Rain = 0
KLE1 070905Z 06007KT 02/M03 A3035 RMK A01 T00201031  RH  069%=      5-min Rain = 0
KLE1 070906Z 06007KT 02/M03 A3035 RMK A01 T00201031  RH  069%=      5-min Rain = 0
KLE1 070907Z 06007KT 02/M03 A3035 RMK A01 T00211031  RH  069%=      5-min Rain = 0
KLE1 070908Z 07008KT 02/M03 A3035 RMK A01 T00211031  RH  069%=      5-min Rain = 0
KLE1 070909Z 06007KT 02/M03 A3035 RMK A01 T00211031  RH  069%=      5-min Rain = 0
KLE1 070910Z 07006KT 02/M03 A3035 RMK A01 T00201031  RH  069%=      5-min Rain = 0
KLE1 070911Z 06006KT 02/M03 A3035 RMK A01 T00211031  RH  069%=      5-min Rain = 0
KLE1 070912Z 06007KT 02/M03 A3035 RMK A01 T00201031  RH  069%=      5-min Rain = 0
KLE1 070913Z 06006KT 02/M03 A3034 RMK A01 T00201031  RH  069%=      5-min Rain = 0
KLE1 070914Z 06006KT 02/M03 A3034 RMK A01 T00201031  RH  069%=      5-min Rain = 0
KLE1 070915Z 06007KT 02/M03 A3034 RMK A01 T00211030  RH  069%=      5-min Rain = 0
KLE1 070916Z 07006KT 02/M03 A3034 RMK A01 T00201030  RH  069%=      5-min Rain = 0
KLE1 070917Z 07006KT 02/M03 A3034 RMK A01 T00201030  RH  069%=      5-min Rain = 0
KLE1 070918Z 06005KT 02/M03 A3034 RMK A01 T00211030  RH  069%=      5-min Rain = 0
KLE1 070919Z 07005KT 02/M03 A3034 RMK A01 T00201031  RH  069%=      5-min Rain = 0
KLE1 070920Z 07006KT 02/M03 A3034 RMK A01 T00201030  RH  069%=      5-min Rain = 0
KLE1 070921Z 07005KT 02/M03 A3034 RMK A01 T00201031  RH  069%=      5-min Rain = 0
KLE1 070922Z 07005KT 02/M03 A3034 RMK A01 T00201031  RH  069%=      5-min Rain = 0
KLE1 070923Z 08005KT 02/M03 A3034 RMK A01 T00201031  RH  069%=      5-min Rain = 0
KLE1 070924Z 07005KT 02/M03 A3034 RMK A01 T00201030  RH  069%=      5-min Rain = 0
KLE1 070925Z 07005KT 02/M03 A3034 RMK A01 T00201031  RH  069%=      5-min Rain = 0
KLE1 070926Z 06005KT 02/M03 A3034 RMK A01 T00201031  RH  069%=      5-min Rain = 0
KLE1 070927Z 06005KT 02/M03 A3034 RMK A01 T00201031  RH  069%=      5-min Rain = 0
KLE1 070928Z 06005KT 02/M03 A3034 RMK A01 T00201031  RH  069%=      5-min Rain = 0
KLE1 070929Z 06004KT 02/M03 A3034 RMK A01 T00201031  RH  069%=      5-min Rain = 0
KLE1 070930Z 07004KT 02/M03 A3034 RMK A01 T00201031  RH  069%=      5-min Rain = 0
KLE1 070931Z 07004KT 02/M03 A3034 RMK A01 T00201031  RH  069%=      5-min Rain = 0
KLE1 070932Z 07005KT 02/M03 A3034 RMK A01 T00201030  RH  069%=      5-min Rain = 0
KLE1 070933Z 07005KT 02/M03 A3034 RMK A01 T00201031  RH  069%=      5-min Rain = 0
KLE1 070934Z 07005KT 02/M03 A3034 RMK A01 T00201031  RH  069%=      5-min Rain = 0
KLE1 070935Z 08005KT 02/M03 A3034 RMK A01 T00191031  RH  069%=      5-min Rain = 0
KLE1 070936Z 08004KT 02/M03 A3034 RMK A01 T00201031  RH  069%=      5-min Rain = 0
KLE1 070937Z 08004KT 02/M03 A3035 RMK A01 T00191031  RH  069%=      5-min Rain = 0
KLE1 070938Z 08004KT 02/M03 A3035 RMK A01 T00191031  RH  069%=      5-min Rain = 0
KLE1 070939Z 08003KT 02/M03 A3035 RMK A01 T00201030  RH  070%=      5-min Rain = 0
KLE1 070940Z 08004KT 02/M03 A3034 RMK A01 T00201030  RH  070%=      5-min Rain = 0
KLE1 070941Z 08004KT 02/M03 A3034 RMK A01 T00201030  RH  070%=      5-min Rain = 0
KLE1 070942Z 07005KT 02/M03 A3034 RMK A01 T00191030  RH  070%=      5-min Rain = 0
KLE1 070943Z 07006KT 02/M03 A3034 RMK A01 T00201030  RH  070%=      5-min Rain = 0
KLE1 070944Z 07006KT 02/M03 A3034 RMK A01 T00201030  RH  070%=      5-min Rain = 0
KLE1 070945Z 07005KT 02/M03 A3034 RMK A01 T00201030  RH  070%=      5-min Rain = 0
KLE1 070946Z 06005KT 02/M03 A3034 RMK A01 T00191030  RH  070%=      5-min Rain = 0
KLE1 070947Z 06005KT 02/M03 A3034 RMK A01 T00201030  RH  070%=      5-min Rain = 0
KLE1 070948Z 06005KT 02/M03 A3034 RMK A01 T00201030  RH  070%=      5-min Rain = 0
KLE1 070949Z 07005KT 02/M03 A3034 RMK A01 T00201030  RH  070%=      5-min Rain = 0
KLE1 070950Z 07005KT 02/M03 A3034 RMK A01 T00201030  RH  070%=      5-min Rain = 0
KLE1 070951Z 07005KT 02/M03 A3034 RMK A01 T00201029  RH  070%=      5-min Rain = 0
KLE1 070952Z 07006KT 02/M03 A3034 RMK A01 T00191030  RH  070%=      5-min Rain = 0
KLE1 070953Z 07006KT 02/M03 A3034 RMK A01 T00191030  RH  070%=      5-min Rain = 0
KLE1 070954Z 06006KT 02/M03 A3034 RMK A01 T00201030  RH  070%=      5-min Rain = 0
KLE1 070955Z 06005KT 02/M03 A3034 RMK A01 T00191029  RH  070%=      5-min Rain = 0
KLE1 070956Z 07006KT 02/M03 A3034 RMK A01 T00191029  RH  070%=      5-min Rain = 0
KLE1 070957Z 07006KT 02/M03 A3034 RMK A01 T00191029  RH  070%=      5-min Rain = 0
KLE1 070958Z 07006KT 02/M03 A3034 RMK A01 T00191029  RH  070%=      5-min Rain = 0
KLE1 070959Z 07005KT 02/M03 A3034 RMK A01 T00191029  RH  070%=      5-min Rain = 0
KLE1 071000Z 07005KT 02/M03 A3034 RMK A01 T00191030  RH  070%=      5-min Rain = 0
KLE1 071001Z 07004KT 02/M03 A3034 RMK A01 T00191030  RH  070%=      5-min Rain = 0
KLE1 071002Z 07004KT 02/M03 A3034 RMK A01 T00191029  RH  070%=      5-min Rain = 0
KLE1 071003Z 06004KT 02/M03 A3034 RMK A01 T00191029  RH  070%=      5-min Rain = 0
KLE1 071004Z 07004KT 02/M03 A3034 RMK A01 T00191029  RH  070%=      5-min Rain = 0
KLE1 071005Z 06004KT 02/M03 A3034 RMK A01 T00191029  RH  070%=      5-min Rain = 0
KLE1 071006Z 06004KT 02/M03 A3034 RMK A01 T00191029  RH  070%=      5-min Rain = 0
KLE1 071007Z 06005KT 02/M03 A3034 RMK A01 T00191029  RH  070%=      5-min Rain = 0
KLE1 071008Z 05004KT 02/M03 A3034 RMK A01 T00191029  RH  070%=      5-min Rain = 0
KLE1 071009Z 05004KT 02/M03 A3034 RMK A01 T00191029  RH  071%=      5-min Rain = 0
KLE1 071010Z 05005KT 02/M03 A3034 RMK A01 T00191029  RH  071%=      5-min Rain = 0
KLE1 071011Z 04004KT 02/M03 A3034 RMK A01 T00191029  RH  071%=      5-min Rain = 0
KLE1 071012Z 04004KT 02/M03 A3034 RMK A01 T00191029  RH  071%=      5-min Rain = 0
KLE1 071013Z 05004KT 02/M03 A3034 RMK A01 T00191029  RH  071%=      5-min Rain = 0
KLE1 071014Z 04004KT 02/M03 A3034 RMK A01 T00191029  RH  071%=      5-min Rain = 0
KLE1 071015Z 04004KT 02/M03 A3034 RMK A01 T00191029  RH  071%=      5-min Rain = 0
KLE1 071016Z 04004KT 02/M03 A3034 RMK A01 T00191028  RH  071%=      5-min Rain = 0
KLE1 071017Z 04004KT 02/M03 A3034 RMK A01 T00191028  RH  071%=      5-min Rain = 0
KLE1 071018Z 05003KT 02/M03 A3034 RMK A01 T00191029  RH  071%=      5-min Rain = 0
KLE1 071019Z 05003KT 02/M03 A3034 RMK A01 T00191028  RH  071%=      5-min Rain = 0
KLE1 071020Z 06003KT 02/M03 A3034 RMK A01 T00191028  RH  071%=      5-min Rain = 0
KLE1 071021Z 05003KT 02/M03 A3034 RMK A01 T00191029  RH  071%=      5-min Rain = 0
KLE1 071022Z 05003KT 02/M03 A3034 RMK A01 T00191029  RH  071%=      5-min Rain = 0
KLE1 071023Z 05003KT 02/M03 A3034 RMK A01 T00191028  RH  071%=      5-min Rain = 0
KLE1 071024Z 05003KT 02/M03 A3034 RMK A01 T00191028  RH  071%=      5-min Rain = 0
KLE1 071025Z 06004KT 02/M03 A3033 RMK A01 T00191029  RH  071%=      5-min Rain = 0
KLE1 071026Z 06004KT 02/M03 A3033 RMK A01 T00191029  RH  071%=      5-min Rain = 0
KLE1 071027Z 06004KT 02/M03 A3033 RMK A01 T00181029  RH  071%=      5-min Rain = 0
KLE1 071028Z 06004KT 02/M03 A3033 RMK A01 T00181028  RH  071%=      5-min Rain = 0
KLE1 071029Z 06004KT 02/M03 A3033 RMK A01 T00181029  RH  071%=      5-min Rain = 0
KLE1 071030Z 05005KT 02/M03 A3033 RMK A01 T00181029  RH  071%=      5-min Rain = 0
KLE1 071031Z 05004KT 02/M03 A3033 RMK A01 T00181029  RH  071%=      5-min Rain = 0
KLE1 071032Z 06005KT 02/M03 A3033 RMK A01 T00181029  RH  071%=      5-min Rain = 0
KLE1 071033Z 06004KT 02/M03 A3033 RMK A01 T00181029  RH  071%=      5-min Rain = 0
KLE1 071034Z 06005KT 02/M03 A3033 RMK A01 T00181029  RH  071%=      5-min Rain = 0
KLE1 071035Z 06005KT 02/M03 A3032 RMK A01 T00181029  RH  071%=      5-min Rain = 0
KLE1 071036Z 06004KT 02/M03 A3032 RMK A01 T00181029  RH  071%=      5-min Rain = 0
KLE1 071037Z 06003KT 02/M03 A3033 RMK A01 T00181029  RH  071%=      5-min Rain = 0
KLE1 071038Z 06004KT 02/M03 A3033 RMK A01 T00181029  RH  071%=      5-min Rain = 0
KLE1 071039Z 06005KT 02/M03 A3032 RMK A01 T00181029  RH  071%=      5-min Rain = 0
KLE1 071040Z 06006KT 02/M03 A3032 RMK A01 T00181028  RH  071%=      5-min Rain = 0
KLE1 071041Z 06005KT 02/M03 A3032 RMK A01 T00181028  RH  071%=      5-min Rain = 0
KLE1 071042Z 06005KT 02/M03 A3032 RMK A01 T00181028  RH  071%=      5-min Rain = 0
KLE1 071043Z 06006KT 02/M03 A3032 RMK A01 T00181028  RH  071%=      5-min Rain = 0
KLE1 071044Z 06006KT 02/M03 A3032 RMK A01 T00181028  RH  071%=      5-min Rain = 0
KLE1 071045Z 06005KT 02/M03 A3032 RMK A01 T00181028  RH  071%=      5-min Rain = 0
KLE1 071046Z 06005KT 02/M03 A3031 RMK A01 T00181028  RH  072%=      5-min Rain = 0
KLE1 071047Z 06006KT 02/M03 A3031 RMK A01 T00181028  RH  072%=      5-min Rain = 0
KLE1 071048Z 06006KT 02/M03 A3031 RMK A01 T00181028  RH  072%=      5-min Rain = 0
KLE1 071049Z 06006KT 02/M03 A3031 RMK A01 T00181028  RH  072%=      5-min Rain = 0
KLE1 071050Z 06006KT 02/M03 A3031 RMK A01 T00181028  RH  072%=      5-min Rain = 0
KLE1 071051Z 07006KT 02/M03 A3031 RMK A01 T00171028  RH  072%=      5-min Rain = 0
KLE1 071052Z 07007KT 02/M03 A3031 RMK A01 T00171028  RH  072%=      5-min Rain = 0
KLE1 071053Z 07006KT 02/M03 A3031 RMK A01 T00171028  RH  072%=      5-min Rain = 0
KLE1 071054Z 07006KT 02/M03 A3031 RMK A01 T00171028  RH  072%=      5-min Rain = 0
KLE1 071055Z 06006KT 02/M03 A3031 RMK A01 T00171029  RH  072%=      5-min Rain = 0
KLE1 071056Z 06006KT 02/M03 A303 RMK A01 T00171028  RH  072%=      5-min Rain = 0
KLE1 071057Z 06006KT 02/M03 A303 RMK A01 T00171028  RH  072%=      5-min Rain = 0
KLE1 071058Z 06005KT 02/M03 A303 RMK A01 T00171028  RH  072%=      5-min Rain = 0
KLE1 071059Z 06006KT 02/M03 A303 RMK A01 T00171028  RH  072%=      5-min Rain = 0
KLE1 071100Z 07006KT 02/M03 A303 RMK A01 T00171028  RH  072%=      5-min Rain = 0
KLE1 071101Z 07006KT 02/M03 A303 RMK A01 T00171028  RH  072%=      5-min Rain = 0
KLE1 071102Z 06005KT 02/M03 A3031 RMK A01 T00171028  RH  072%=      5-min Rain = 0
KLE1 071103Z 06005KT 02/M03 A3031 RMK A01 T00171028  RH  072%=      5-min Rain = 0
KLE1 071104Z 06004KT 02/M03 A3031 RMK A01 T00171028  RH  072%=      5-min Rain = 0
KLE1 071105Z 06004KT 02/M03 A3031 RMK A01 T00171028  RH  072%=      5-min Rain = 0
KLE1 071106Z 05003KT 02/M03 A3031 RMK A01 T00171028  RH  072%=      5-min Rain = 0
KLE1 071107Z 06003KT 02/M03 A3032 RMK A01 T00171028  RH  072%=      5-min Rain = 0
KLE1 071108Z 07003KT 02/M03 A3032 RMK A01 T00171028  RH  072%=      5-min Rain = 0
KLE1 071109Z 07003KT 02/M03 A3032 RMK A01 T00171028  RH  072%=      5-min Rain = 0
KLE1 071110Z 07003KT 02/M03 A3032 RMK A01 T00171028  RH  072%=      5-min Rain = 0
KLE1 071111Z 07003KT 02/M03 A3032 RMK A01 T00171028  RH  072%=      5-min Rain = 0
KLE1 071112Z 08003KT 02/M03 A3032 RMK A01 T00171028  RH  072%=      5-min Rain = 0
KLE1 071113Z 08003KT 02/M03 A3032 RMK A01 T00171028  RH  072%=      5-min Rain = 0
KLE1 071114Z 09004KT 02/M03 A3032 RMK A01 T00171028  RH  072%=      5-min Rain = 0
KLE1 071115Z 09004KT 02/M03 A3031 RMK A01 T00171028  RH  072%=      5-min Rain = 0
KLE1 071116Z 09005KT 02/M03 A3031 RMK A01 T00171028  RH  072%=      5-min Rain = 0
KLE1 071117Z 09005KT 02/M03 A3031 RMK A01 T00171028  RH  072%=      5-min Rain = 0
KLE1 071118Z 08006KT 02/M03 A3031 RMK A01 T00171028  RH  072%=      5-min Rain = 0
KLE1 071119Z 09005KT 02/M03 A3031 RMK A01 T00171028  RH  072%=      5-min Rain = 0
KLE1 071120Z 09006KT 02/M03 A3031 RMK A01 T00171027  RH  072%=      5-min Rain = 0
KLE1 071121Z 09006KT 02/M03 A3031 RMK A01 T00171027  RH  072%=      5-min Rain = 0
KLE1 071122Z 08007KT 02/M03 A3032 RMK A01 T00181028  RH  072%=      5-min Rain = 0
KLE1 071123Z 08007KT 02/M03 A3032 RMK A01 T00181029  RH  071%=      5-min Rain = 0
KLE1 071124Z 08008KT 02/M03 A3032 RMK A01 T00181030  RH  070%=      5-min Rain = 0
KLE1 071125Z 07007KT 02/M03 A3033 RMK A01 T00181031  RH  070%=      5-min Rain = 0
KLE1 071126Z 08004KT 02/M03 A3033 RMK A01 T00181032  RH  070%=      5-min Rain = 0
KLE1 071127Z 10003KT 02/M03 A3033 RMK A01 T00181031  RH  070%=      5-min Rain = 0
KLE1 071128Z 09004KT 02/M03 A3033 RMK A01 T00181030  RH  071%=      5-min Rain = 0
KLE1 071129Z 08005KT 02/M03 A3033 RMK A01 T00181030  RH  071%=      5-min Rain = 0
KLE1 071130Z 08006KT 02/M03 A3033 RMK A01 T00181030  RH  071%=      5-min Rain = 0
KLE1 071131Z 09005KT 02/M03 A3033 RMK A01 T00171030  RH  071%=      5-min Rain = 0
KLE1 071132Z 09006KT 02/M03 A3033 RMK A01 T00181029  RH  071%=      5-min Rain = 0
KLE1 071133Z 09006KT 02/M03 A3033 RMK A01 T00181028  RH  072%=      5-min Rain = 0
KLE1 071134Z 09007KT 02/M03 A3033 RMK A01 T00181028  RH  071%=      5-min Rain = 0
KLE1 071135Z 09007KT 02/M03 A3033 RMK A01 T00171029  RH  071%=      5-min Rain = 0
KLE1 071136Z 09007KT 02/M03 A3033 RMK A01 T00171029  RH  071%=      5-min Rain = 0
KLE1 071137Z 09007KT 02/M03 A3033 RMK A01 T00171028  RH  072%=      5-min Rain = 0
KLE1 071138Z 09008KT 02/M03 A3033 RMK A01 T00171028  RH  072%=      5-min Rain = 0
KLE1 071139Z 08008KT 02/M03 A3033 RMK A01 T00171029  RH  072%=      5-min Rain = 0
KLE1 071140Z 08008KT 02/M03 A3033 RMK A01 T00161029  RH  072%=      5-min Rain = 0
KLE1 071141Z 09007KT 02/M03 A3033 RMK A01 T00171028  RH  072%=      5-min Rain = 0
KLE1 071142Z 09008KT 02/M03 A3032 RMK A01 T00161028  RH  073%=      5-min Rain = 0
KLE1 071143Z 09009KT 02/M03 A3032 RMK A01 T00161028  RH  073%=      5-min Rain = 0
KLE1 071144Z 08007KT 02/M03 A3032 RMK A01 T00161029  RH  072%=      5-min Rain = 0
KLE1 071145Z 08008KT 02/M03 A3033 RMK A01 T00161028  RH  072%=      5-min Rain = 0
KLE1 071146Z 08007KT 02/M03 A3033 RMK A01 T00161028  RH  072%=      5-min Rain = 0
KLE1 071147Z 08007KT 02/M03 A3033 RMK A01 T00161028  RH  072%=      5-min Rain = 0
KLE1 071148Z 08007KT 02/M03 A3033 RMK A01 T00151028  RH  073%=      5-min Rain = 0
KLE1 071149Z 08009KT 02/M03 A3033 RMK A01 T00151029  RH  073%=      5-min Rain = 0
KLE1 071150Z 07007KT 02/M03 A3033 RMK A01 T00151029  RH  072%=      5-min Rain = 0
KLE1 071151Z 07007KT 02/M03 A3033 RMK A01 T00151029  RH  072%=      5-min Rain = 0
KLE1 071152Z 07007KT 02/M03 A3033 RMK A01 T00151029  RH  072%=      5-min Rain = 0
KLE1 071153Z 08008KT 02/M03 A3033 RMK A01 T00151029  RH  073%=      5-min Rain = 0
KLE1 071154Z 07008KT 02/M03 A3033 RMK A01 T00151029  RH  073%=      5-min Rain = 0
KLE1 071155Z 07007KT 02/M03 A3033 RMK A01 T00151029  RH  073%=      5-min Rain = 0
KLE1 071156Z 07006KT 02/M03 A3033 RMK A01 T00151028  RH  073%=      5-min Rain = 0
KLE1 071157Z 07008KT 02/M03 A3033 RMK A01 T00151028  RH  073%=      5-min Rain = 0
KLE1 071158Z 07007KT 02/M03 A3033 RMK A01 T00151028  RH  073%=      5-min Rain = 0
KLE1 071159Z 08007KT 02/M03 A3033 RMK A01 T00151028  RH  073%=      5-min Rain = 0
KLE1 071200Z 08008KT 02/M03 A3033 RMK A01 T00151028  RH  074%=      5-min Rain = 0
KLE1 071201Z 08008KT 01/M03 A3033 RMK A01 T00141028  RH  074%=      5-min Rain = 0
KLE1 071202Z 08007KT 01/M03 A3033 RMK A01 T00141028  RH  074%=      5-min Rain = 0
KLE1 071203Z 08008KT 01/M03 A3033 RMK A01 T00141028  RH  074%=      5-min Rain = 0
KLE1 071204Z 07009KT 01/M03 A3033 RMK A01 T00141028  RH  074%=      5-min Rain = 0
KLE1 071205Z 07009KT 01/M03 A3033 RMK A01 T00141028  RH  074%=      5-min Rain = 0
KLE1 071206Z 07009KT 01/M03 A3033 RMK A01 T00131028  RH  074%=      5-min Rain = 0
KLE1 071207Z 07008KT 01/M03 A3033 RMK A01 T00141028  RH  074%=      5-min Rain = 0
KLE1 071208Z 07008KT 01/M03 A3033 RMK A01 T00141028  RH  074%=      5-min Rain = 0
KLE1 071209Z 07008KT 01/M03 A3033 RMK A01 T00141028  RH  074%=      5-min Rain = 0
KLE1 071210Z 07008KT 01/M03 A3033 RMK A01 T00141028  RH  074%=      5-min Rain = 0
KLE1 071211Z 07009KT 01/M03 A3033 RMK A01 T00131028  RH  074%=      5-min Rain = 0
KLE1 071212Z 07007KT 01/M03 A3033 RMK A01 T00131028  RH  074%=      5-min Rain = 0
KLE1 071213Z 07007KT 01/M03 A3033 RMK A01 T00131028  RH  074%=      5-min Rain = 0
KLE1 071214Z 07009KT 01/M03 A3033 RMK A01 T00131027  RH  074%=      5-min Rain = 0
KLE1 071215Z 08008KT 01/M03 A3033 RMK A01 T00131027  RH  074%=      5-min Rain = 0
KLE1 071216Z 07009KT 01/M03 A3033 RMK A01 T00131027  RH  075%=      5-min Rain = 0
KLE1 071217Z 08009KT 01/M03 A3033 RMK A01 T00131027  RH  075%=      5-min Rain = 0
KLE1 071218Z 07009KT 01/M03 A3033 RMK A01 T00131027  RH  075%=      5-min Rain = 0
KLE1 071219Z 08008KT 01/M03 A3033 RMK A01 T00131027  RH  075%=      5-min Rain = 0
KLE1 071220Z 07010KT 01/M03 A3033 RMK A01 T00131026  RH  075%=      5-min Rain = 0
KLE1 071221Z 07009KT 01/M03 A3033 RMK A01 T00131027  RH  075%=      5-min Rain = 0
KLE1 071222Z 08007KT 01/M03 A3033 RMK A01 T00131027  RH  075%=      5-min Rain = 0
KLE1 071223Z 08008KT 01/M03 A3033 RMK A01 T00131026  RH  075%=      5-min Rain = 0
KLE1 071224Z 07009KT 01/M03 A3033 RMK A01 T00131026  RH  075%=      5-min Rain = 0
KLE1 071225Z 07008KT 01/M03 A3032 RMK A01 T00131026  RH  075%=      5-min Rain = 0
KLE1 071226Z 07009KT 01/M03 A3032 RMK A01 T00121026  RH  075%=      5-min Rain = 0
KLE1 071227Z 08010KT 01/M03 A3032 RMK A01 T00121027  RH  075%=      5-min Rain = 0
KLE1 071228Z 07009KT 01/M03 A3032 RMK A01 T00121027  RH  075%=      5-min Rain = 0
KLE1 071229Z 08008KT 01/M03 A3033 RMK A01 T00121027  RH  075%=      5-min Rain = 0
KLE1 071230Z 07008KT 01/M03 A3032 RMK A01 T00121027  RH  076%=      5-min Rain = 0
KLE1 071231Z 07011KT 01/M03 A3032 RMK A01 T00121026  RH  076%=      5-min Rain = 0
KLE1 071232Z 07011KT 01/M03 A3032 RMK A01 T00121027  RH  075%=      5-min Rain = 0
KLE1 071233Z 07010KT 01/M03 A3032 RMK A01 T00121027  RH  075%=      5-min Rain = 0
KLE1 071234Z 07010KT 01/M03 A3032 RMK A01 T00121027  RH  075%=      5-min Rain = 0
KLE1 071235Z 07010KT 01/M03 A3032 RMK A01 T00111027  RH  075%=      5-min Rain = 0
KLE1 071236Z 07010KT 01/M03 A3032 RMK A01 T00111027  RH  075%=      5-min Rain = 0
KLE1 071237Z 06010KT 01/M03 A3032 RMK A01 T00111027  RH  075%=      5-min Rain = 0
KLE1 071238Z 06009KT 01/M03 A3032 RMK A01 T00111027  RH  075%=      5-min Rain = 0
KLE1 071239Z 06009KT 01/M03 A3032 RMK A01 T00111027  RH  076%=      5-min Rain = 0
KLE1 071240Z 06009KT 01/M03 A3032 RMK A01 T00111027  RH  075%=      5-min Rain = 0
KLE1 071241Z 06010KT 01/M03 A3032 RMK A01 T00111028  RH  075%=      5-min Rain = 0
KLE1 071242Z 07010KT 01/M03 A3032 RMK A01 T00111028  RH  075%=      5-min Rain = 0
KLE1 071243Z 07011KT 01/M03 A3032 RMK A01 T00111028  RH  075%=      5-min Rain = 0
KLE1 071244Z 07010KT 01/M03 A3032 RMK A01 T00111028  RH  075%=      5-min Rain = 0
KLE1 071245Z 06009KT 01/M03 A3032 RMK A01 T00111028  RH  075%=      5-min Rain = 0
KLE1 071246Z 06009KT 01/M03 A3032 RMK A01 T00111028  RH  075%=      5-min Rain = 0
KLE1 071247Z 06009KT 01/M03 A3032 RMK A01 T00111029  RH  075%=      5-min Rain = 0
KLE1 071248Z 06009KT 01/M03 A3032 RMK A01 T00111029  RH  075%=      5-min Rain = 0
KLE1 071249Z 06008KT 01/M03 A3032 RMK A01 T00111029  RH  075%=      5-min Rain = 0
KLE1 071250Z 07008KT 01/M03 A3033 RMK A01 T00111029  RH  075%=      5-min Rain = 0
KLE1 071251Z 06008KT 01/M03 A3033 RMK A01 T00111029  RH  075%=      5-min Rain = 0
KLE1 071252Z 06010KT 01/M03 A3033 RMK A01 T00111029  RH  075%=      5-min Rain = 0
KLE1 071253Z 07010KT 01/M03 A3033 RMK A01 T00111029  RH  074%=      5-min Rain = 0
KLE1 071254Z 07009KT 01/M03 A3033 RMK A01 T00111029  RH  074%=      5-min Rain = 0
KLE1 071255Z 08009KT 01/M03 A3033 RMK A01 T00111030  RH  074%=      5-min Rain = 0
KLE1 071256Z 08008KT 01/M03 A3033 RMK A01 T00111031  RH  074%=      5-min Rain = 0
KLE1 071257Z 08008KT 01/M03 A3033 RMK A01 T00111031  RH  074%=      5-min Rain = 0
KLE1 071258Z 08009KT 01/M03 A3033 RMK A01 T00111031  RH  073%=      5-min Rain = 0
KLE1 071259Z 08008KT 01/M03 A3034 RMK A01 T00111033  RH  073%=      5-min Rain = 0
KLE1 071300Z 06007KT 01/M03 A3034 RMK A01 T00111033  RH  073%=      5-min Rain = 0
KLE1 071301Z 07008KT 01/M03 A3034 RMK A01 T00111033  RH  073%=      5-min Rain = 0
KLE1 071302Z 07008KT 01/M03 A3035 RMK A01 T00101034  RH  072%=      5-min Rain = 0
KLE1 071303Z 07008KT 01/M03 A3035 RMK A01 T00101034  RH  072%=      5-min Rain = 0
KLE1 071304Z 08009KT 01/M03 A3034 RMK A01 T00111034  RH  072%=      5-min Rain = 0
KLE1 071305Z 07008KT 01/M04 A3034 RMK A01 T00111035  RH  072%=      5-min Rain = 0
KLE1 071306Z 07009KT 01/M04 A3034 RMK A01 T00101035  RH  072%=      5-min Rain = 0
KLE1 071307Z 07008KT 01/M04 A3034 RMK A01 T00101035  RH  072%=      5-min Rain = 0
KLE1 071308Z 07008KT 01/M04 A3034 RMK A01 T00101035  RH  072%=      5-min Rain = 0
KLE1 071309Z 06007KT 01/M03 A3034 RMK A01 T00101034  RH  072%=      5-min Rain = 0
KLE1 071310Z 06009KT 01/M03 A3035 RMK A01 T00101034  RH  072%=      5-min Rain = 0
KLE1 071311Z 07009KT 01/M04 A3035 RMK A01 T00101035  RH  072%=      5-min Rain = 0
KLE1 071312Z 07008KT 01/M04 A3035 RMK A01 T00101035  RH  072%=      5-min Rain = 0
KLE1 071313Z 07008KT 01/M04 A3035 RMK A01 T00091035  RH  072%=      5-min Rain = 0
KLE1 071314Z 06007KT 01/M04 A3035 RMK A01 T00091035  RH  072%=      5-min Rain = 0
KLE1 071315Z 06009KT 01/M04 A3035 RMK A01 T00091035  RH  072%=      5-min Rain = 0
KLE1 071316Z 06010KT 01/M04 A3035 RMK A01 T00091035  RH  072%=      5-min Rain = 0
KLE1 071317Z 06009KT 01/M04 A3035 RMK A01 T00091035  RH  073%=      5-min Rain = 0
KLE1 071318Z 06009KT 01/M03 A3034 RMK A01 T00091034  RH  073%=      5-min Rain = 0
KLE1 071319Z 06009KT 01/M04 A3034 RMK A01 T00091035  RH  073%=      5-min Rain = 0
KLE1 071320Z 07010KT 01/M03 A3034 RMK A01 T00091034  RH  073%=      5-min Rain = 0
KLE1 071321Z 06009KT 01/M03 A3034 RMK A01 T00091034  RH  073%=      5-min Rain = 0
KLE1 071322Z 07010KT 01/M03 A3035 RMK A01 T00081034  RH  073%=      5-min Rain = 0
KLE1 071323Z 06009KT 01/M03 A3035 RMK A01 T00081034  RH  073%=      5-min Rain = 0
KLE1 071324Z 06009KT 01/M03 A3035 RMK A01 T00081034  RH  073%=      5-min Rain = 0
KLE1 071325Z 07010KT 01/M03 A3035 RMK A01 T00081034  RH  074%=      5-min Rain = 0
KLE1 071326Z 07009KT 01/M03 A3035 RMK A01 T00071034  RH  074%=      5-min Rain = 0
KLE1 071327Z 07010KT 01/M03 A3035 RMK A01 T00081034  RH  074%=      5-min Rain = 0
KLE1 071328Z 07008KT 01/M03 A3035 RMK A01 T00081034  RH  074%=      5-min Rain = 0
KLE1 071329Z 07009KT 01/M03 A3035 RMK A01 T00081034  RH  074%=      5-min Rain = 0
KLE1 071330Z 08008KT 01/M03 A3035 RMK A01 T00071034  RH  074%=      5-min Rain = 0
KLE1 071331Z 07009KT 01/M03 A3035 RMK A01 T00071034  RH  074%=      5-min Rain = 0
KLE1 071332Z 07010KT 01/M03 A3035 RMK A01 T00071034  RH  074%=      5-min Rain = 0
KLE1 071333Z 07009KT 01/M03 A3035 RMK A01 T00071034  RH  074%=      5-min Rain = 0
KLE1 071334Z 07009KT 01/M03 A3035 RMK A01 T00071034  RH  074%=      5-min Rain = 0
KLE1 071335Z 07009KT 01/M03 A3035 RMK A01 T00071034  RH  074%=      5-min Rain = 0
KLE1 071336Z 07009KT 01/M03 A3035 RMK A01 T00071034  RH  074%=      5-min Rain = 0
KLE1 071337Z 07009KT 01/M03 A3035 RMK A01 T00071034  RH  074%=      5-min Rain = 0
KLE1 071338Z 06009KT 01/M04 A3035 RMK A01 T00071035  RH  074%=      5-min Rain = 0
KLE1 071339Z 06008KT 01/M04 A3036 RMK A01 T00071035  RH  074%=      5-min Rain = 0
KLE1 071340Z 05008KT 01/M04 A3036 RMK A01 T00071035  RH  074%=      5-min Rain = 0
KLE1 071341Z 05008KT 01/M04 A3036 RMK A01 T00061035  RH  074%=      5-min Rain = 0
KLE1 071342Z 05007KT 01/M04 A3036 RMK A01 T00061035  RH  074%=      5-min Rain = 0
KLE1 071343Z 05008KT 01/M04 A3036 RMK A01 T00061035  RH  074%=      5-min Rain = 0
KLE1 071344Z 05009KT 01/M04 A3036 RMK A01 T00061035  RH  074%=      5-min Rain = 0
KLE1 071345Z 05009KT 01/M04 A3036 RMK A01 T00061035  RH  074%=      5-min Rain = 0
KLE1 071346Z 06008KT 01/M04 A3036 RMK A01 T00061036  RH  074%=      5-min Rain = 0
KLE1 071347Z 05007KT 01/M04 A3036 RMK A01 T00061036  RH  074%=      5-min Rain = 0
KLE1 071348Z 05008KT 01/M04 A3036 RMK A01 T00061035  RH  074%=      5-min Rain = 0
KLE1 071349Z 05007KT 01/M04 A3036 RMK A01 T00061036  RH  074%=      5-min Rain = 0
KLE1 071350Z 05008KT 01/M04 A3036 RMK A01 T00061036  RH  074%=      5-min Rain = 0
KLE1 071351Z 04008KT 01/M04 A3036 RMK A01 T00061036  RH  074%=      5-min Rain = 0
KLE1 071352Z 05007KT 01/M04 A3037 RMK A01 T00061036  RH  074%=      5-min Rain = 0
KLE1 071353Z 05006KT 01/M04 A3036 RMK A01 T00061036  RH  074%=      5-min Rain = 0
KLE1 071354Z 06007KT 01/M04 A3036 RMK A01 T00061036  RH  074%=      5-min Rain = 0
KLE1 071355Z 06007KT 01/M04 A3036 RMK A01 T00061035  RH  074%=      5-min Rain = 0
KLE1 071356Z 06008KT 01/M04 A3036 RMK A01 T00061035  RH  074%=      5-min Rain = 0
KLE1 071357Z 06007KT 01/M04 A3036 RMK A01 T00061036  RH  074%=      5-min Rain = 0
KLE1 071358Z 06008KT 01/M04 A3036 RMK A01 T00051036  RH  074%=      5-min Rain = 0
KLE1 071359Z 06008KT 01/M04 A3036 RMK A01 T00051036  RH  074%=      5-min Rain = 0
KLE1 071400Z 06008KT 01/M04 A3036 RMK A01 T00051036  RH  074%=      5-min Rain = 0
KLE1 071401Z 06009KT 01/M04 A3036 RMK A01 T00051036  RH  074%=      5-min Rain = 0
KLE1 071402Z 06009KT 01/M04 A3036 RMK A01 T00051037  RH  074%=      5-min Rain = 0
KLE1 071403Z 06009KT 01/M04 A3036 RMK A01 T00051037  RH  074%=      5-min Rain = 0
KLE1 071404Z 06008KT 01/M04 A3036 RMK A01 T00051037  RH  074%=      5-min Rain = 0
KLE1 071405Z 06009KT 01/M04 A3036 RMK A01 T00051037  RH  074%=      5-min Rain = 0
KLE1 071406Z 06009KT 01/M04 A3036 RMK A01 T00051037  RH  074%=      5-min Rain = 0
KLE1 071407Z 06010KT 00/M04 A3036 RMK A01 T00041037  RH  074%=      5-min Rain = 0
KLE1 071408Z 06009KT 00/M04 A3036 RMK A01 T00041037  RH  074%=      5-min Rain = 0
KLE1 071409Z 06009KT 00/M04 A3036 RMK A01 T00041037  RH  074%=      5-min Rain = 0
KLE1 071410Z 06009KT 00/M04 A3036 RMK A01 T00041037  RH  074%=      5-min Rain = 0
KLE1 071411Z 07008KT 00/M04 A3036 RMK A01 T00041037  RH  074%=      5-min Rain = 0
KLE1 071412Z 06008KT 01/M04 A3036 RMK A01 T00051037  RH  074%=      5-min Rain = 0
KLE1 071413Z 06009KT 00/M04 A3036 RMK A01 T00041037  RH  074%=      5-min Rain = 0
KLE1 071414Z 06009KT 00/M04 A3036 RMK A01 T00041038  RH  073%=      5-min Rain = 0
KLE1 071415Z 06007KT 00/M04 A3036 RMK A01 T00041038  RH  073%=      5-min Rain = 0
KLE1 071416Z 06008KT 00/M04 A3036 RMK A01 T00041038  RH  073%=      5-min Rain = 0
KLE1 071417Z 05009KT 00/M04 A3036 RMK A01 T00041038  RH  073%=      5-min Rain = 0
KLE1 071418Z 05009KT 00/M04 A3036 RMK A01 T00041039  RH  073%=      5-min Rain = 0
KLE1 071419Z 05010KT 00/M04 A3036 RMK A01 T00041039  RH  073%=      5-min Rain = 0
KLE1 071420Z 05008KT 00/M04 A3036 RMK A01 T00041039  RH  073%=      5-min Rain = 0
KLE1 071421Z 05007KT 00/M04 A3036 RMK A01 T00041039  RH  073%=      5-min Rain = 0
KLE1 071422Z 06007KT 00/M04 A3037 RMK A01 T00041039  RH  073%=      5-min Rain = 0
KLE1 071423Z 05009KT 00/M04 A3037 RMK A01 T00041039  RH  073%=      5-min Rain = 0
KLE1 071424Z 05010KT 00/M04 A3037 RMK A01 T00041039  RH  073%=      5-min Rain = 0
KLE1 071425Z 06009KT 00/M04 A3037 RMK A01 T00041039  RH  073%=      5-min Rain = 0
KLE1 071426Z 06007KT 00/M04 A3037 RMK A01 T00041039  RH  073%=      5-min Rain = 0
KLE1 071427Z 05010KT 00/M04 A3036 RMK A01 T00041039  RH  073%=      5-min Rain = 0
KLE1 071428Z 05010KT 00/M04 A3036 RMK A01 T00041039  RH  073%=      5-min Rain = 0
KLE1 071429Z 05009KT 00/M04 A3036 RMK A01 T00041040  RH  073%=      5-min Rain = 0
KLE1 071430Z 05009KT 00/M04 A3036 RMK A01 T00031039  RH  073%=      5-min Rain = 0
KLE1 071431Z 06009KT 00/M04 A3036 RMK A01 T00031039  RH  073%=      5-min Rain = 0
KLE1 071432Z 06008KT 00/M04 A3036 RMK A01 T00041039  RH  073%=      5-min Rain = 0
KLE1 071433Z 05008KT 00/M04 A3036 RMK A01 T00031039  RH  073%=      5-min Rain = 0
KLE1 071434Z 06009KT 00/M04 A3036 RMK A01 T00031039  RH  073%=      5-min Rain = 0
KLE1 071435Z 06009KT 00/M04 A3036 RMK A01 T00041040  RH  073%=      5-min Rain = 0
KLE1 071436Z 04007KT 00/M04 A3036 RMK A01 T00041039  RH  073%=      5-min Rain = 0
KLE1 071437Z 04009KT 00/M04 A3036 RMK A01 T00041039  RH  073%=      5-min Rain = 0
KLE1 071438Z 04010KT 00/M04 A3036 RMK A01 T00031040  RH  073%=      5-min Rain = 0
KLE1 071439Z 04011KT 00/M04 A3037 RMK A01 T00041040  RH  072%=      5-min Rain = 0
KLE1 071440Z 04010KT 00/M04 A3037 RMK A01 T00041040  RH  072%=      5-min Rain = 0
KLE1 071441Z 04009KT 00/M04 A3037 RMK A01 T00031041  RH  072%=      5-min Rain = 0
KLE1 071442Z 04008KT 00/M04 A3037 RMK A01 T00031041  RH  072%=      5-min Rain = 0
KLE1 071443Z 04009KT 00/M04 A3037 RMK A01 T00031041  RH  072%=      5-min Rain = 0
KLE1 071444Z 04010KT 00/M04 A3037 RMK A01 T00031041  RH  072%=      5-min Rain = 0
KLE1 071445Z 04009KT 00/M04 A3037 RMK A01 T00031041  RH  072%=      5-min Rain = 0
KLE1 071446Z 05009KT 00/M04 A3037 RMK A01 T00031040  RH  073%=      5-min Rain = 0
KLE1 071447Z 05008KT 00/M04 A3038 RMK A01 T00031040  RH  073%=      5-min Rain = 0
KLE1 071448Z 05009KT 00/M04 A3038 RMK A01 T00031041  RH  073%=      5-min Rain = 0
KLE1 071449Z 05009KT 00/M04 A3038 RMK A01 T00031040  RH  072%=      5-min Rain = 0
KLE1 071450Z 05010KT 00/M04 A3038 RMK A01 T00031041  RH  072%=      5-min Rain = 0
KLE1 071451Z 05008KT 00/M04 A3038 RMK A01 T00031041  RH  072%=      5-min Rain = 0
KLE1 071452Z 06008KT 00/M04 A3038 RMK A01 T00031041  RH  072%=      5-min Rain = 0
KLE1 071453Z 06009KT 00/M04 A3038 RMK A01 T00031040  RH  073%=      5-min Rain = 0
KLE1 071454Z 06008KT 00/M04 A3038 RMK A01 T00031041  RH  072%=      5-min Rain = 0
KLE1 071455Z 07007KT 00/M04 A3038 RMK A01 T00031041  RH  072%=      5-min Rain = 0
KLE1 071456Z 06007KT 00/M04 A3039 RMK A01 T00041040  RH  072%=      5-min Rain = 0
KLE1 071457Z 06007KT 00/M04 A3039 RMK A01 T00031041  RH  072%=      5-min Rain = 0
KLE1 071458Z 06006KT 00/M04 A3039 RMK A01 T00031041  RH  072%=      5-min Rain = 0
KLE1 071459Z 06006KT 00/M04 A3039 RMK A01 T00031041  RH  072%=      5-min Rain = 0
KLE1 071500Z 06007KT 00/M04 A3039 RMK A01 T00031041  RH  072%=      5-min Rain = 0
KLE1 071501Z 06006KT 00/M04 A3039 RMK A01 T00041040  RH  072%=      5-min Rain = 0
KLE1 071502Z 06006KT 00/M04 A3039 RMK A01 T00041040  RH  072%=      5-min Rain = 0
KLE1 071503Z 06007KT 00/M04 A304 RMK A01 T00041041  RH  072%=      5-min Rain = 0
KLE1 071504Z 06007KT 00/M04 A304 RMK A01 T00041041  RH  072%=      5-min Rain = 0
KLE1 071505Z 05006KT 00/M04 A304 RMK A01 T00041041  RH  072%=      5-min Rain = 0
KLE1 071506Z 04006KT 00/M04 A304 RMK A01 T00041041  RH  072%=      5-min Rain = 0
KLE1 071507Z 04006KT 00/M04 A304 RMK A01 T00041040  RH  072%=      5-min Rain = 0
KLE1 071508Z 04006KT 00/M04 A304 RMK A01 T00041040  RH  072%=      5-min Rain = 0
KLE1 071509Z 04006KT 00/M04 A304 RMK A01 T00041041  RH  072%=      5-min Rain = 0
KLE1 071510Z 04005KT 01/M04 A304 RMK A01 T00051040  RH  072%=      5-min Rain = 0
KLE1 071511Z 05006KT 01/M04 A304 RMK A01 T00051040  RH  072%=      5-min Rain = 0
KLE1 071512Z 05005KT 01/M04 A304 RMK A01 T00051040  RH  072%=      5-min Rain = 0
KLE1 071513Z 06005KT 01/M04 A304 RMK A01 T00051040  RH  072%=      5-min Rain = 0
KLE1 071514Z 06004KT 01/M04 A304 RMK A01 T00051039  RH  072%=      5-min Rain = 0
KLE1 071515Z 05005KT 01/M04 A304 RMK A01 T00051039  RH  072%=      5-min Rain = 0
KLE1 071516Z 05006KT 01/M04 A304 RMK A01 T00051039  RH  072%=      5-min Rain = 0
KLE1 071517Z 05005KT 01/M04 A304 RMK A01 T00051040  RH  072%=      5-min Rain = 0
KLE1 071518Z 04005KT 01/M04 A304 RMK A01 T00051039  RH  072%=      5-min Rain = 0
KLE1 071519Z 05005KT 01/M04 A304 RMK A01 T00051040  RH  072%=      5-min Rain = 0
KLE1 071520Z 05006KT 01/M04 A304 RMK A01 T00061040  RH  072%=      5-min Rain = 0
KLE1 071521Z 05005KT 01/M04 A304 RMK A01 T00051040  RH  071%=      5-min Rain = 0
KLE1 071522Z 04005KT 01/M04 A304 RMK A01 T00051040  RH  072%=      5-min Rain = 0
KLE1 071523Z 04005KT 01/M04 A304 RMK A01 T00051040  RH  072%=      5-min Rain = 0
KLE1 071524Z 04005KT 01/M04 A304 RMK A01 T00051040  RH  072%=      5-min Rain = 0
KLE1 071525Z 04005KT 01/M04 A304 RMK A01 T00061040  RH  071%=      5-min Rain = 0
KLE1 071526Z 03005KT 01/M04 A304 RMK A01 T00051041  RH  071%=      5-min Rain = 0
KLE1 071527Z 03006KT 01/M04 A304 RMK A01 T00051041  RH  071%=      5-min Rain = 0
KLE1 071528Z 03006KT 01/M04 A304 RMK A01 T00051040  RH  071%=      5-min Rain = 0
KLE1 071529Z 03006KT 01/M04 A304 RMK A01 T00051040  RH  071%=      5-min Rain = 0
KLE1 071530Z 03006KT 01/M04 A304 RMK A01 T00061040  RH  072%=      5-min Rain = 0
KLE1 071531Z 02005KT 01/M04 A304 RMK A01 T00051040  RH  071%=      5-min Rain = 0
KLE1 071532Z 03006KT 01/M04 A304 RMK A01 T00051040  RH  072%=      5-min Rain = 0
KLE1 071533Z 04005KT 01/M04 A304 RMK A01 T00051040  RH  072%=      5-min Rain = 0
KLE1 071534Z 03004KT 01/M04 A304 RMK A01 T00051040  RH  072%=      5-min Rain = 0
KLE1 071535Z 03005KT 01/M04 A304 RMK A01 T00061040  RH  072%=      5-min Rain = 0
KLE1 071536Z 03005KT 01/M04 A304 RMK A01 T00061040  RH  072%=      5-min Rain = 0
KLE1 071537Z 02005KT 01/M04 A304 RMK A01 T00061040  RH  071%=      5-min Rain = 0
KLE1 071538Z 02004KT 01/M04 A304 RMK A01 T00061040  RH  072%=      5-min Rain = 0
KLE1 071539Z 04004KT 01/M04 A304 RMK A01 T00061039  RH  072%=      5-min Rain = 0
KLE1 071540Z 03005KT 01/M04 A304 RMK A01 T00061039  RH  072%=      5-min Rain = 0
KLE1 071541Z 03005KT 01/M04 A304 RMK A01 T00061040  RH  071%=      5-min Rain = 0
KLE1 071542Z 03006KT 01/M04 A304 RMK A01 T00061040  RH  071%=      5-min Rain = 0
KLE1 071543Z 03005KT 01/M04 A304 RMK A01 T00061040  RH  071%=      5-min Rain = 0
KLE1 071544Z 03005KT 01/M04 A304 RMK A01 T00061040  RH  071%=      5-min Rain = 0
KLE1 071545Z 04006KT 01/M04 A304 RMK A01 T00061040  RH  071%=      5-min Rain = 0
KLE1 071546Z 04006KT 01/M04 A304 RMK A01 T00061040  RH  071%=      5-min Rain = 0
KLE1 071547Z 02005KT 01/M04 A304 RMK A01 T00061040  RH  071%=      5-min Rain = 0
KLE1 071548Z 03005KT 01/M04 A304 RMK A01 T00061040  RH  072%=      5-min Rain = 0
KLE1 071549Z 02005KT 01/M04 A304 RMK A01 T00061039  RH  072%=      5-min Rain = 0
KLE1 071550Z 03004KT 01/M04 A304 RMK A01 T00061037  RH  073%=      5-min Rain = 0
KLE1 071551Z 03005KT 01/M04 A304 RMK A01 T00061035  RH  074%=      5-min Rain = 0
KLE1 071552Z 03005KT 01/M04 A304 RMK A01 T00061036  RH  074%=      5-min Rain = 0
KLE1 071553Z 03004KT 01/M04 A304 RMK A01 T00061036  RH  073%=      5-min Rain = 0
KLE1 071554Z 03004KT 01/M04 A304 RMK A01 T00071035  RH  074%=      5-min Rain = 0
KLE1 071555Z 02005KT 01/M04 A304 RMK A01 T00071036  RH  073%=      5-min Rain = 0
KLE1 071556Z 03005KT 01/M04 A304 RMK A01 T00071038  RH  072%=      5-min Rain = 0
KLE1 071557Z 03004KT 01/M04 A304 RMK A01 T00071037  RH  073%=      5-min Rain = 0
KLE1 071558Z 02004KT 01/M04 A304 RMK A01 T00071037  RH  073%=      5-min Rain = 0
KLE1 071559Z 01004KT 01/M04 A304 RMK A01 T00071038  RH  072%=      5-min Rain = 0
KLE1 071600Z 00005KT 01/M04 A304 RMK A01 T00061037  RH  073%=      5-min Rain = 0
KLE1 071601Z 01004KT 01/M04 A304 RMK A01 T00071036  RH  073%=      5-min Rain = 0
KLE1 071602Z 03004KT 01/M04 A304 RMK A01 T00071036  RH  073%=      5-min Rain = 0
KLE1 071603Z 02004KT 01/M04 A304 RMK A01 T00081036  RH  072%=      5-min Rain = 0
KLE1 071604Z 02004KT 01/M04 A304 RMK A01 T00081038  RH  071%=      5-min Rain = 0
KLE1 071605Z 02005KT 01/M04 A304 RMK A01 T00091037  RH  071%=      5-min Rain = 0
KLE1 071606Z 02005KT 01/M04 A304 RMK A01 T00091039  RH  070%=      5-min Rain = 0
KLE1 071607Z 02005KT 01/M04 A304 RMK A01 T00091039  RH  070%=      5-min Rain = 0
KLE1 071608Z 04005KT 01/M04 A304 RMK A01 T00081039  RH  071%=      5-min Rain = 0
KLE1 071609Z 04005KT 01/M04 A3039 RMK A01 T00081040  RH  070%=      5-min Rain = 0
KLE1 071610Z 02006KT 01/M04 A3039 RMK A01 T00081039  RH  071%=      5-min Rain = 0
KLE1 071611Z 02007KT 01/M04 A3039 RMK A01 T00091038  RH  071%=      5-min Rain = 0
KLE1 071612Z 02007KT 01/M04 A3039 RMK A01 T00091039  RH  070%=      5-min Rain = 0
KLE1 071613Z 02006KT 01/M04 A3039 RMK A01 T00091040  RH  070%=      5-min Rain = 0
KLE1 071614Z 01006KT 01/M04 A3039 RMK A01 T00091040  RH  070%=      5-min Rain = 0
KLE1 071615Z 01004KT 01/M04 A3039 RMK A01 T00091040  RH  070%=      5-min Rain = 0
KLE1 071616Z 01004KT 01/M04 A3039 RMK A01 T00091040  RH  070%=      5-min Rain = 0
KLE1 071617Z 00005KT 01/M04 A3039 RMK A01 T00101039  RH  070%=      5-min Rain = 0
KLE1 071618Z 01005KT 01/M04 A3039 RMK A01 T00101039  RH  070%=      5-min Rain = 0
KLE1 071619Z 02004KT 01/M04 A304 RMK A01 T00101039  RH  070%=      5-min Rain = 0
KLE1 071620Z 03005KT 01/M04 A304 RMK A01 T00111039  RH  069%=      5-min Rain = 0
KLE1 071621Z 02004KT 01/M04 A304 RMK A01 T00111040  RH  069%=      5-min Rain = 0
KLE1 071622Z 01005KT 01/M04 A304 RMK A01 T00111040  RH  069%=      5-min Rain = 0
KLE1 071623Z 02004KT 01/M04 A304 RMK A01 T00111040  RH  069%=      5-min Rain = 0
KLE1 071624Z 01004KT 01/M04 A304 RMK A01 T00111039  RH  069%=      5-min Rain = 0
KLE1 071625Z 01007KT 01/M04 A304 RMK A01 T00111039  RH  069%=      5-min Rain = 0
KLE1 071626Z 01005KT 01/M04 A304 RMK A01 T00111039  RH  069%=      5-min Rain = 0
KLE1 071627Z 00005KT 01/M04 A304 RMK A01 T00111039  RH  069%=      5-min Rain = 0
KLE1 071628Z 36005KT 01/M04 A304 RMK A01 T00111040  RH  069%=      5-min Rain = 0
KLE1 071629Z 00005KT 01/M04 A304 RMK A01 T00111040  RH  069%=      5-min Rain = 0
KLE1 071630Z 01005KT 01/M04 A304 RMK A01 T00101040  RH  069%=      5-min Rain = 0
KLE1 071631Z 01004KT 01/M04 A304 RMK A01 T00101040  RH  069%=      5-min Rain = 0
KLE1 071632Z 02005KT 01/M04 A304 RMK A01 T00111039  RH  069%=      5-min Rain = 0
KLE1 071633Z 03005KT 01/M04 A304 RMK A01 T00111039  RH  069%=      5-min Rain = 0
KLE1 071634Z 04006KT 01/M04 A304 RMK A01 T00111039  RH  069%=      5-min Rain = 0
KLE1 071635Z 04006KT 01/M04 A3039 RMK A01 T00111039  RH  069%=      5-min Rain = 0
KLE1 071636Z 04006KT 01/M04 A3039 RMK A01 T00111040  RH  069%=      5-min Rain = 0
KLE1 071637Z 03004KT 01/M04 A3039 RMK A01 T00111040  RH  069%=      5-min Rain = 0
KLE1 071638Z 04006KT 01/M04 A3039 RMK A01 T00111039  RH  069%=      5-min Rain = 0
KLE1 071639Z 03006KT 01/M04 A3039 RMK A01 T00121039  RH  069%=      5-min Rain = 0
KLE1 071640Z 03005KT 01/M04 A3039 RMK A01 T00111040  RH  068%=      5-min Rain = 0
KLE1 071641Z 04005KT 01/M04 A3039 RMK A01 T00121040  RH  068%=      5-min Rain = 0
KLE1 071642Z 05005KT 01/M04 A3039 RMK A01 T00111040  RH  069%=      5-min Rain = 0
KLE1 071643Z 05005KT 01/M04 A3039 RMK A01 T00111040  RH  069%=      5-min Rain = 0
KLE1 071644Z 05005KT 01/M04 A3039 RMK A01 T00111040  RH  069%=      5-min Rain = 0
KLE1 071645Z 04006KT 01/M04 A3039 RMK A01 T00111040  RH  069%=      5-min Rain = 0
KLE1 071646Z 04005KT 01/M04 A3039 RMK A01 T00111040  RH  069%=      5-min Rain = 0
KLE1 071647Z 04005KT 01/M04 A3039 RMK A01 T00111039  RH  069%=      5-min Rain = 0
KLE1 071648Z 02004KT 01/M04 A3039 RMK A01 T00111039  RH  069%=      5-min Rain = 0
KLE1 071649Z 04005KT 01/M04 A3039 RMK A01 T00121039  RH  069%=      5-min Rain = 0
KLE1 071650Z 05004KT 01/M04 A3039 RMK A01 T00121040  RH  068%=      5-min Rain = 0
KLE1 071651Z 05004KT 01/M04 A3039 RMK A01 T00131039  RH  069%=      5-min Rain = 0
KLE1 071652Z 04004KT 01/M04 A3039 RMK A01 T00121039  RH  069%=      5-min Rain = 0
KLE1 071653Z 05004KT 01/M04 A3039 RMK A01 T00131039  RH  068%=      5-min Rain = 0
KLE1 071654Z 05004KT 01/M04 A3039 RMK A01 T00121040  RH  068%=      5-min Rain = 0
KLE1 071655Z 05003KT 01/M04 A3039 RMK A01 T00121041  RH  068%=      5-min Rain = 0
KLE1 071656Z 03003KT 01/M04 A3038 RMK A01 T00111041  RH  068%=      5-min Rain = 0
KLE1 071657Z 06003KT 01/M04 A3038 RMK A01 T00111040  RH  069%=      5-min Rain = 0
KLE1 071658Z 06003KT 01/M04 A3038 RMK A01 T00111040  RH  069%=      5-min Rain = 0
KLE1 071659Z 06002KT 01/M04 A3038 RMK A01 T00111040  RH  069%=      5-min Rain = 0
KLE1 071700Z 05003KT 01/M04 A3038 RMK A01 T00111039  RH  069%=      5-min Rain = 0
KLE1 071701Z 04003KT 01/M04 A3038 RMK A01 T00121039  RH  069%=      5-min Rain = 0
KLE1 071702Z 05003KT 01/M04 A3038 RMK A01 T00121039  RH  069%=      5-min Rain = 0
KLE1 071703Z 04003KT 01/M04 A3038 RMK A01 T00121039  RH  069%=      5-min Rain = 0
KLE1 071704Z 03004KT 01/M04 A3038 RMK A01 T00121038  RH  069%=      5-min Rain = 0
KLE1 071705Z 02004KT 01/M04 A3038 RMK A01 T00121039  RH  069%=      5-min Rain = 0
KLE1 071706Z 02004KT 01/M04 A3038 RMK A01 T00121039  RH  069%=      5-min Rain = 0
KLE1 071707Z 03005KT 01/M04 A3038 RMK A01 T00121038  RH  069%=      5-min Rain = 0
KLE1 071708Z 04005KT 01/M04 A3038 RMK A01 T00121037  RH  069%=      5-min Rain = 0
KLE1 071709Z 05006KT 01/M04 A3037 RMK A01 T00131037  RH  069%=      5-min Rain = 0
KLE1 071710Z 04006KT 01/M04 A3037 RMK A01 T00131038  RH  069%=      5-min Rain = 0
KLE1 071711Z 03006KT 01/M04 A3037 RMK A01 T00131037  RH  069%=      5-min Rain = 0
KLE1 071712Z 02005KT 01/M04 A3037 RMK A01 T00131038  RH  069%=      5-min Rain = 0
KLE1 071713Z 03004KT 01/M04 A3037 RMK A01 T00131038  RH  069%=      5-min Rain = 0
KLE1 071714Z 01003KT 01/M04 A3037 RMK A01 T00131038  RH  069%=      5-min Rain = 0
KLE1 071715Z 00003KT 01/M04 A3038 RMK A01 T00131038  RH  069%=      5-min Rain = 0
KLE1 071716Z 02003KT 01/M04 A3038 RMK A01 T00131038  RH  069%=      5-min Rain = 0
KLE1 071717Z 05002KT 01/M04 A3038 RMK A01 T00141039  RH  068%=      5-min Rain = 0
KLE1 071718Z 06002KT 01/M04 A3038 RMK A01 T00131039  RH  068%=      5-min Rain = 0
KLE1 071719Z 06002KT 01/M04 A3038 RMK A01 T00131039  RH  068%=      5-min Rain = 0
KLE1 071720Z 04002KT 01/M04 A3038 RMK A01 T00131038  RH  069%=      5-min Rain = 0
KLE1 071721Z 03003KT 01/M04 A3038 RMK A01 T00131038  RH  069%=      5-min Rain = 0
KLE1 071722Z 01003KT 01/M04 A3037 RMK A01 T00131038  RH  069%=      5-min Rain = 0
KLE1 071723Z 01002KT 01/M04 A3038 RMK A01 T00131038  RH  069%=      5-min Rain = 0
KLE1 071724Z 00002KT 01/M04 A3038 RMK A01 T00131038  RH  069%=      5-min Rain = 0
KLE1 071725Z 01002KT 01/M04 A3038 RMK A01 T00141038  RH  069%=      5-min Rain = 0
KLE1 071726Z 02003KT 01/M04 A3038 RMK A01 T00141037  RH  069%=      5-min Rain = 0
KLE1 071727Z 02002KT 01/M04 A3038 RMK A01 T00141037  RH  069%=      5-min Rain = 0
KLE1 071728Z 01003KT 01/M04 A3037 RMK A01 T00141037  RH  069%=      5-min Rain = 0
KLE1 071729Z 01003KT 02/M04 A3037 RMK A01 T00151037  RH  069%=      5-min Rain = 0
KLE1 071730Z 02004KT 02/M04 A3037 RMK A01 T00151037  RH  068%=      5-min Rain = 0
KLE1 071731Z 01002KT 02/M04 A3037 RMK A01 T00151037  RH  068%=      5-min Rain = 0
KLE1 071732Z 00001KT 02/M04 A3037 RMK A01 T00151038  RH  068%=      5-min Rain = 0
KLE1 071733Z 36001KT 02/M04 A3037 RMK A01 T00151038  RH  068%=      5-min Rain = 0
KLE1 071734Z 35002KT 01/M04 A3037 RMK A01 T00141039  RH  068%=      5-min Rain = 0
KLE1 071735Z 01002KT 01/M04 A3037 RMK A01 T00141039  RH  068%=      5-min Rain = 0
KLE1 071736Z 06002KT 01/M04 A3037 RMK A01 T00141037  RH  068%=      5-min Rain = 0
KLE1 071737Z 05003KT 02/M04 A3037 RMK A01 T00151036  RH  069%=      5-min Rain = 0
KLE1 071738Z 05003KT 02/M04 A3037 RMK A01 T00151037  RH  068%=      5-min Rain = 0
KLE1 071739Z 06003KT 02/M04 A3037 RMK A01 T00161037  RH  068%=      5-min Rain = 0
KLE1 071740Z 05002KT 02/M04 A3037 RMK A01 T00161037  RH  068%=      5-min Rain = 0
KLE1 071741Z 04002KT 02/M04 A3037 RMK A01 T00161037  RH  068%=      5-min Rain = 0
KLE1 071742Z 03002KT 02/M04 A3037 RMK A01 T00161038  RH  068%=      5-min Rain = 0
KLE1 071743Z 04002KT 02/M04 A3037 RMK A01 T00161037  RH  068%=      5-min Rain = 0
KLE1 071744Z 06001KT 02/M04 A3037 RMK A01 T00161037  RH  068%=      5-min Rain = 0
KLE1 071745Z 06003KT 02/M04 A3037 RMK A01 T00161037  RH  068%=      5-min Rain = 0
KLE1 071746Z 05003KT 02/M04 A3037 RMK A01 T00161037  RH  068%=      5-min Rain = 0
KLE1 071747Z 06002KT 02/M04 A3037 RMK A01 T00161038  RH  068%=      5-min Rain = 0
KLE1 071748Z 05002KT 02/M04 A3037 RMK A01 T00161038  RH  068%=      5-min Rain = 0
KLE1 071749Z 05002KT 02/M04 A3037 RMK A01 T00161037  RH  068%=      5-min Rain = 0
KLE1 071750Z 05002KT 02/M04 A3036 RMK A01 T00161037  RH  068%=      5-min Rain = 0
KLE1 071751Z 04002KT 02/M04 A3036 RMK A01 T00161037  RH  068%=      5-min Rain = 0
KLE1 071752Z 06002KT 02/M04 A3036 RMK A01 T00161037  RH  067%=      5-min Rain = 0
KLE1 071753Z 05004KT 02/M04 A3036 RMK A01 T00161037  RH  068%=      5-min Rain = 0
KLE1 071754Z 04003KT 02/M03 A3036 RMK A01 T00181034  RH  068%=      5-min Rain = 0
KLE1 071755Z 04003KT 02/M04 A3036 RMK A01 T00191035  RH  067%=      5-min Rain = 0
KLE1 071756Z 06003KT 02/M04 A3036 RMK A01 T00191035  RH  067%=      5-min Rain = 0
KLE1 071757Z 06004KT 02/M04 A3035 RMK A01 T00201035  RH  067%=      5-min Rain = 0
KLE1 071758Z 05002KT 02/M04 A3035 RMK A01 T00201035  RH  067%=      5-min Rain = 0
KLE1 071759Z 05004KT 02/M04 A3035 RMK A01 T00201035  RH  067%=      5-min Rain = 0
KLE1 071800Z 04005KT 02/M04 A3035 RMK A01 T00201035  RH  067%=      5-min Rain = 0
KLE1 071801Z 02003KT 02/M04 A3035 RMK A01 T00201035  RH  067%=      5-min Rain = 0
KLE1 071802Z 01003KT 02/M04 A3035 RMK A01 T00211035  RH  067%=      5-min Rain = 0
KLE1 071803Z 03003KT 02/M03 A3035 RMK A01 T00201034  RH  067%=      5-min Rain = 0
KLE1 071804Z 03005KT 02/M03 A3035 RMK A01 T00211034  RH  067%=      5-min Rain = 0
KLE1 071805Z 02003KT 02/M04 A3035 RMK A01 T00211035  RH  067%=      5-min Rain = 0
KLE1 071806Z 00002KT 02/M04 A3035 RMK A01 T00191036  RH  067%=      5-min Rain = 0
KLE1 071807Z 02002KT 02/M04 A3035 RMK A01 T00191035  RH  067%=      5-min Rain = 0
KLE1 071808Z 03003KT 02/M04 A3035 RMK A01 T00181035  RH  068%=      5-min Rain = 0
KLE1 071809Z 05004KT 02/M04 A3035 RMK A01 T00191035  RH  067%=      5-min Rain = 0
KLE1 071810Z 05003KT 02/M04 A3035 RMK A01 T00191035  RH  067%=      5-min Rain = 0
KLE1 071811Z 05005KT 02/M04 A3034 RMK A01 T00191035  RH  068%=      5-min Rain = 0
KLE1 071812Z 05004KT 02/M03 A3034 RMK A01 T00201034  RH  067%=      5-min Rain = 0
KLE1 071813Z 06004KT 02/M03 A3034 RMK A01 T00201034  RH  067%=      5-min Rain = 0
KLE1 071814Z 05003KT 02/M03 A3034 RMK A01 T00211033  RH  067%=      5-min Rain = 0
KLE1 071815Z 04003KT 02/M03 A3034 RMK A01 T00211033  RH  067%=      5-min Rain = 0
KLE1 071816Z 05004KT 02/M03 A3034 RMK A01 T00211033  RH  067%=      5-min Rain = 0
KLE1 071817Z 06003KT 02/M03 A3034 RMK A01 T00211034  RH  067%=      5-min Rain = 0
KLE1 071818Z 07004KT 02/M03 A3034 RMK A01 T00211034  RH  067%=      5-min Rain = 0
KLE1 071819Z 07003KT 02/M03 A3034 RMK A01 T00211034  RH  067%=      5-min Rain = 0
KLE1 071820Z 04003KT 02/M03 A3034 RMK A01 T00211034  RH  067%=      5-min Rain = 0
KLE1 071821Z 02004KT 02/M03 A3034 RMK A01 T00211034  RH  067%=      5-min Rain = 0
KLE1 071822Z 02005KT 02/M03 A3034 RMK A01 T00211034  RH  067%=      5-min Rain = 0
KLE1 071823Z 02004KT 02/M03 A3034 RMK A01 T00211034  RH  067%=      5-min Rain = 0
KLE1 071824Z 02004KT 02/M03 A3034 RMK A01 T00211034  RH  067%=      5-min Rain = 0
KLE1 071825Z 03004KT 02/M03 A3034 RMK A01 T00211034  RH  067%=      5-min Rain = 0
KLE1 071826Z 02004KT 02/M03 A3033 RMK A01 T00221034  RH  067%=      5-min Rain = 0
KLE1 071827Z 01004KT 02/M03 A3033 RMK A01 T00221033  RH  067%=      5-min Rain = 0
KLE1 071828Z 01004KT 02/M03 A3033 RMK A01 T00221033  RH  067%=      5-min Rain = 0
KLE1 071829Z 03003KT 02/M03 A3033 RMK A01 T00221032  RH  067%=      5-min Rain = 0
KLE1 071830Z 05004KT 02/M03 A3033 RMK A01 T00231032  RH  067%=      5-min Rain = 0
KLE1 071831Z 04004KT 02/M03 A3033 RMK A01 T00241032  RH  066%=      5-min Rain = 0
KLE1 071832Z 05004KT 02/M03 A3033 RMK A01 T00241033  RH  066%=      5-min Rain = 0
KLE1 071833Z 06003KT 02/M03 A3033 RMK A01 T00231033  RH  066%=      5-min Rain = 0
KLE1 071834Z 07003KT 02/M03 A3033 RMK A01 T00231033  RH  066%=      5-min Rain = 0
KLE1 071835Z 07002KT 02/M03 A3033 RMK A01 T00221034  RH  066%=      5-min Rain = 0
KLE1 071836Z 08002KT 02/M03 A3033 RMK A01 T00221033  RH  067%=      5-min Rain = 0
KLE1 071837Z 09002KT 02/M03 A3033 RMK A01 T00221033  RH  067%=      5-min Rain = 0
KLE1 071838Z 08002KT 02/M03 A3033 RMK A01 T00221034  RH  067%=      5-min Rain = 0
KLE1 071839Z 09002KT 02/M03 A3032 RMK A01 T00221034  RH  067%=      5-min Rain = 0
KLE1 071840Z 08002KT 02/M03 A3032 RMK A01 T00221034  RH  066%=      5-min Rain = 0
KLE1 071841Z 08002KT 02/M03 A3032 RMK A01 T00221034  RH  067%=      5-min Rain = 0
KLE1 071842Z 07003KT 02/M03 A3032 RMK A01 T00221033  RH  067%=      5-min Rain = 0
KLE1 071843Z 07004KT 02/M03 A3032 RMK A01 T00221033  RH  067%=      5-min Rain = 0
KLE1 071844Z 07004KT 02/M03 A3032 RMK A01 T00231032  RH  067%=      5-min Rain = 0
KLE1 071845Z 06003KT 02/M03 A3032 RMK A01 T00231033  RH  067%=      5-min Rain = 0
KLE1 071846Z 05003KT 02/M03 A3032 RMK A01 T00231033  RH  067%=      5-min Rain = 0
KLE1 071847Z 05003KT 02/M03 A3032 RMK A01 T00231032  RH  067%=      5-min Rain = 0
KLE1 071848Z 06004KT 02/M03 A3032 RMK A01 T00231031  RH  067%=      5-min Rain = 0
KLE1 071849Z 06004KT 02/M03 A3032 RMK A01 T00231032  RH  067%=      5-min Rain = 0
KLE1 071850Z 06004KT 02/M03 A3032 RMK A01 T00231031  RH  067%=      5-min Rain = 0
KLE1 071851Z 06004KT 02/M03 A3032 RMK A01 T00241030  RH  068%=      5-min Rain = 0
KLE1 071852Z 06005KT 02/M03 A3031 RMK A01 T00241030  RH  067%=      5-min Rain = 0
KLE1 071853Z 06004KT 02/M03 A3031 RMK A01 T00241030  RH  067%=      5-min Rain = 0
KLE1 071854Z 05004KT 02/M03 A3031 RMK A01 T00241031  RH  067%=      5-min Rain = 0
KLE1 071855Z 06004KT 02/M03 A3031 RMK A01 T00241030  RH  068%=      5-min Rain = 0
KLE1 071856Z 06003KT 02/M03 A3031 RMK A01 T00241030  RH  067%=      5-min Rain = 0
KLE1 071857Z 05003KT 02/M03 A3031 RMK A01 T00241031  RH  067%=      5-min Rain = 0
KLE1 071858Z 06003KT 02/M03 A3031 RMK A01 T00241031  RH  067%=      5-min Rain = 0
KLE1 071859Z 09003KT 02/M03 A3031 RMK A01 T00241029  RH  068%=      5-min Rain = 0
KLE1 071900Z 08003KT 03/M03 A3031 RMK A01 T00251028  RH  068%=      5-min Rain = 0
KLE1 071901Z 07004KT 03/M03 A3031 RMK A01 T00251029  RH  067%=      5-min Rain = 0
KLE1 071902Z 08002KT 03/M03 A3031 RMK A01 T00251031  RH  067%=      5-min Rain = 0
KLE1 071903Z 10002KT 02/M03 A3031 RMK A01 T00241032  RH  066%=      5-min Rain = 0
KLE1 071904Z 08001KT 02/M03 A3031 RMK A01 T00231033  RH  067%=      5-min Rain = 0
KLE1 071905Z 10003KT 02/M03 A3031 RMK A01 T00231031  RH  068%=      5-min Rain = 0
KLE1 071906Z 10004KT 02/M03 A3031 RMK A01 T00231029  RH  068%=      5-min Rain = 0
KLE1 071907Z 11003KT 02/M03 A3031 RMK A01 T00231030  RH  068%=      5-min Rain = 0
KLE1 071908Z 11003KT 02/M03 A3031 RMK A01 T00241030  RH  068%=      5-min Rain = 0
KLE1 071909Z 11003KT 02/M03 A3031 RMK A01 T00241030  RH  068%=      5-min Rain = 0
KLE1 071910Z 11003KT 02/M03 A3031 RMK A01 T00241031  RH  067%=      5-min Rain = 0
KLE1 071911Z 09002KT 02/M03 A3031 RMK A01 T00231030  RH  068%=      5-min Rain = 0
KLE1 071912Z 05002KT 02/M03 A3031 RMK A01 T00231030  RH  068%=      5-min Rain = 0
KLE1 071913Z 06003KT 02/M03 A3031 RMK A01 T00231030  RH  068%=      5-min Rain = 0
KLE1 071914Z 05004KT 02/M03 A3031 RMK A01 T00231027  RH  069%=      5-min Rain = 0
KLE1 071915Z 06003KT 02/M03 A3031 RMK A01 T00241029  RH  068%=      5-min Rain = 0
KLE1 071916Z 05004KT 02/M03 A3031 RMK A01 T00241029  RH  068%=      5-min Rain = 0
KLE1 071917Z 05003KT 02/M03 A3031 RMK A01 T00241029  RH  068%=      5-min Rain = 0
KLE1 071918Z 02002KT 02/M03 A3031 RMK A01 T00241029  RH  068%=      5-min Rain = 0
KLE1 071919Z 08003KT 02/M03 A3031 RMK A01 T00241027  RH  069%=      5-min Rain = 0
KLE1 071920Z 09003KT 02/M03 A3031 RMK A01 T00241026  RH  069%=      5-min Rain = 0
KLE1 071921Z 09002KT 02/M03 A3031 RMK A01 T00241026  RH  069%=      5-min Rain = 0
KLE1 071922Z 07001KT 02/M03 A3032 RMK A01 T00241027  RH  069%=      5-min Rain = 0
KLE1 071923Z 08001KT 03/M03 A3032 RMK A01 T00251025  RH  070%=      5-min Rain = 0
KLE1 071924Z 10001KT 02/M03 A3032 RMK A01 T00241028  RH  069%=      5-min Rain = 0
KLE1 071925Z 11001KT 02/M03 A3032 RMK A01 T00241028  RH  068%=      5-min Rain = 0
KLE1 071926Z 16000KT 02/M03 A3032 RMK A01 T00241028  RH  068%=      5-min Rain = 0
KLE1 071927Z 17000KT 02/M03 A3032 RMK A01 T00241029  RH  068%=      5-min Rain = 0
KLE1 071928Z 06001KT 02/M03 A3031 RMK A01 T00241027  RH  069%=      5-min Rain = 0
KLE1 071929Z 06003KT 02/M03 A3031 RMK A01 T00241028  RH  069%=      5-min Rain = 0
KLE1 071930Z 06004KT 02/M03 A3031 RMK A01 T00241027  RH  069%=      5-min Rain = 0
KLE1 071931Z 07003KT 02/M03 A3031 RMK A01 T00241028  RH  069%=      5-min Rain = 0
KLE1 071932Z 07002KT 02/M03 A3031 RMK A01 T00231028  RH  069%=      5-min Rain = 0
KLE1 071933Z 09002KT 02/M03 A3031 RMK A01 T00231026  RH  070%=      5-min Rain = 0
KLE1 071934Z 09003KT 02/M03 A3031 RMK A01 T00231025  RH  070%=      5-min Rain = 0
KLE1 071935Z 07003KT 02/M03 A3031 RMK A01 T00231026  RH  070%=      5-min Rain = 0
KLE1 071936Z 06003KT 02/M03 A3031 RMK A01 T00231028  RH  069%=      5-min Rain = 0
KLE1 071937Z 04002KT 02/M03 A3031 RMK A01 T00231026  RH  070%=      5-min Rain = 0
KLE1 071938Z 06002KT 02/M03 A3031 RMK A01 T00231026  RH  070%=      5-min Rain = 0
KLE1 071939Z 08002KT 02/M03 A3031 RMK A01 T00231025  RH  070%=      5-min Rain = 0
KLE1 071940Z 09002KT 02/M03 A3031 RMK A01 T00231026  RH  070%=      5-min Rain = 0
KLE1 071941Z 08002KT 02/M03 A3031 RMK A01 T00231027  RH  069%=      5-min Rain = 0
KLE1 071942Z 08001KT 02/M03 A3031 RMK A01 T00231029  RH  069%=      5-min Rain = 0
KLE1 071943Z 10001KT 02/M03 A3031 RMK A01 T00231028  RH  069%=      5-min Rain = 0
KLE1 071944Z 11002KT 02/M03 A3031 RMK A01 T00231027  RH  069%=      5-min Rain = 0
KLE1 071945Z 11001KT 02/M03 A3031 RMK A01 T00231027  RH  069%=      5-min Rain = 0
KLE1 071946Z 11001KT 02/M03 A3031 RMK A01 T00231026  RH  070%=      5-min Rain = 0
KLE1 071947Z 11001KT 02/M03 A3031 RMK A01 T00231025  RH  070%=      5-min Rain = 0
KLE1 071948Z 12001KT 02/M03 A3031 RMK A01 T00231025  RH  071%=      5-min Rain = 0
KLE1 071949Z 12001KT 02/M03 A3031 RMK A01 T00231026  RH  070%=      5-min Rain = 0
KLE1 071950Z 08002KT 02/M03 A3031 RMK A01 T00231026  RH  070%=      5-min Rain = 0
KLE1 071951Z 08002KT 02/M03 A3031 RMK A01 T00231026  RH  070%=      5-min Rain = 0
KLE1 071952Z 08003KT 02/M03 A3031 RMK A01 T00231026  RH  070%=      5-min Rain = 0
KLE1 071953Z 07003KT 02/M03 A3031 RMK A01 T00231025  RH  071%=      5-min Rain = 0
KLE1 071954Z 07003KT 02/M02 A3031 RMK A01 T00231023  RH  072%=      5-min Rain = 0
KLE1 071955Z 07003KT 02/M02 A3031 RMK A01 T00231022  RH  072%=      5-min Rain = 0
KLE1 071956Z 09003KT 02/M02 A3031 RMK A01 T00231021  RH  073%=      5-min Rain = 0
KLE1 071957Z 09004KT 02/M02 A3031 RMK A01 T00231020  RH  074%=      5-min Rain = 0
KLE1 071958Z 09003KT 02/M02 A3031 RMK A01 T00231020  RH  073%=      5-min Rain = 0
KLE1 071959Z 11003KT 02/M02 A3031 RMK A01 T00221021  RH  073%=      5-min Rain = 0
KLE1 072000Z 13003KT 02/M02 A3031 RMK A01 T00211019  RH  074%=      5-min Rain = 0
KLE1 072001Z 14002KT 02/M02 A3031 RMK A01 T00201016  RH  077%=      5-min Rain = 0
KLE1 072002Z 14002KT 02/M02 A3031 RMK A01 T00201016  RH  077%=      5-min Rain = 0
KLE1 072003Z 17002KT 02/M02 A3031 RMK A01 T00191017  RH  077%=      5-min Rain = 0
KLE1 072004Z 16003KT 02/M01 A3031 RMK A01 T00191013  RH  079%=      5-min Rain = 0
KLE1 072005Z 17003KT 02/M01 A3031 RMK A01 T00191013  RH  080%=      5-min Rain = 0
KLE1 072006Z 17002KT 02/M01 A3031 RMK A01 T00181014  RH  079%=      5-min Rain = 0
KLE1 072007Z 17002KT 02/M01 A3031 RMK A01 T00181014  RH  080%=      5-min Rain = 0
KLE1 072008Z 16002KT 02/M01 A3031 RMK A01 T00171013  RH  080%=      5-min Rain = 0
KLE1 072009Z 15003KT 02/M01 A3031 RMK A01 T00171014  RH  080%=      5-min Rain = 0
KLE1 072010Z 17003KT 02/M01 A3031 RMK A01 T00161012  RH  081%=      5-min Rain = 0
KLE1 072011Z 17003KT 02/M01 A3031 RMK A01 T00161009  RH  083%=      5-min Rain = 0
KLE1 072012Z 17004KT 02/M01 A3031 RMK A01 T00161009  RH  084%=      5-min Rain = 0
KLE1 072013Z 17004KT 02/M01 A3031 RMK A01 T00161010  RH  083%=      5-min Rain = 0
KLE1 072014Z 17003KT 02/M01 A3031 RMK A01 T00151012  RH  082%=      5-min Rain = 0
KLE1 072015Z 17003KT 02/M01 A3031 RMK A01 T00151010  RH  084%=      5-min Rain = 0
KLE1 072016Z 16003KT 01/M01 A3031 RMK A01 T00141010  RH  084%=      5-min Rain = 0
KLE1 072017Z 17003KT 01/M01 A3031 RMK A01 T00141010  RH  084%=      5-min Rain = 0
KLE1 072018Z 17003KT 01/M01 A3031 RMK A01 T00141008  RH  085%=      5-min Rain = 0
KLE1 072019Z 18003KT 01/M01 A3031 RMK A01 T00141008  RH  085%=      5-min Rain = 0
KLE1 072020Z 18003KT 01/M01 A3031 RMK A01 T00141009  RH  085%=      5-min Rain = 0
KLE1 072021Z 20003KT 01/M01 A3031 RMK A01 T00131009  RH  085%=      5-min Rain = 0
KLE1 072022Z 20004KT 01/M01 A3031 RMK A01 T00131005  RH  087%=      5-min Rain = 0
KLE1 072023Z 19004KT 01/M01 A3031 RMK A01 T00121006  RH  087%=      5-min Rain = 0
KLE1 072024Z 18004KT 01/M01 A3031 RMK A01 T00121005  RH  089%=      5-min Rain = 0
KLE1 072025Z 18005KT 01/M00 A3031 RMK A01 T00121004  RH  089%=      5-min Rain = 0
KLE1 072026Z 18004KT 01/M00 A3031 RMK A01 T00121003  RH  090%=      5-min Rain = 0
KLE1 072027Z 18004KT 01/M00 A3031 RMK A01 T00111004  RH  090%=      5-min Rain = 0
KLE1 072028Z 18004KT 01/M00 A3031 RMK A01 T00111004  RH  090%=      5-min Rain = 0
KLE1 072029Z 19004KT 01/M00 A3031 RMK A01 T00111003  RH  090%=      5-min Rain = 0
KLE1 072030Z 19003KT 01/M00 A3031 RMK A01 T00111003  RH  091%=      5-min Rain = 0
KLE1 072031Z 19004KT 01/M00 A3031 RMK A01 T00111002  RH  091%=      5-min Rain = 0
KLE1 072032Z 19003KT 01/M00 A3031 RMK A01 T00111004  RH  090%=      5-min Rain = 0
KLE1 072033Z 18003KT 01/M00 A303 RMK A01 T00101004  RH  090%=      5-min Rain = 0
KLE1 072034Z 18003KT 01/M00 A303 RMK A01 T00111002  RH  091%=      5-min Rain = 0
KLE1 072035Z 19004KT 01/M00 A303 RMK A01 T00111001  RH  092%=      5-min Rain = 0
KLE1 072036Z 18003KT 01/M00 A303 RMK A01 T00111001  RH  092%=      5-min Rain = 0
KLE1 072037Z 18003KT 01/M00 A303 RMK A01 T00111001  RH  091%=      5-min Rain = 0
KLE1 072038Z 18003KT 01/M00 A303 RMK A01 T00111002  RH  091%=      5-min Rain = 0
KLE1 072039Z 18003KT 01/M00 A303 RMK A01 T00101002  RH  091%=      5-min Rain = 0.01
KLE1 072040Z 18003KT 01/M00 A303 RMK A01 T00101004  RH  091%=      5-min Rain = 0
KLE1 072041Z 19003KT 01/M01 A303 RMK A01 T00091005  RH  090%=      5-min Rain = 0
KLE1 072042Z 19003KT 01/M01 A303 RMK A01 T00091005  RH  090%=      5-min Rain = 0
KLE1 072043Z 19003KT 01/M01 A3031 RMK A01 T00091005  RH  090%=      5-min Rain = 0
KLE1 072044Z 20002KT 01/M01 A3031 RMK A01 T00091006  RH  090%=      5-min Rain = 0
KLE1 072045Z 20003KT 01/M01 A3031 RMK A01 T00091005  RH  091%=      5-min Rain = 0
KLE1 072046Z 21002KT 01/M00 A3031 RMK A01 T00091004  RH  091%=      5-min Rain = 0
KLE1 072047Z 20003KT 01/M00 A3031 RMK A01 T00091003  RH  092%=      5-min Rain = 0
KLE1 072048Z 20003KT 01/M00 A3031 RMK A01 T00091002  RH  092%=      5-min Rain = 0
KLE1 072049Z 21002KT 01/M00 A3031 RMK A01 T00091002  RH  092%=      5-min Rain = 0
KLE1 072050Z 20003KT 01/M00 A3031 RMK A01 T00101001  RH  093%=      5-min Rain = 0
KLE1 072051Z 22003KT 01/00 A3031 RMK A01 T00100000  RH  093%=      5-min Rain = 0
KLE1 072052Z 22003KT 01/00 A3031 RMK A01 T00100000  RH  093%=      5-min Rain = 0
KLE1 072053Z 22003KT 01/M00 A3031 RMK A01 T00101001  RH  093%=      5-min Rain = 0
KLE1 072054Z 21003KT 01/M00 A3031 RMK A01 T00101001  RH  092%=      5-min Rain = 0
KLE1 072055Z 20003KT 01/M00 A3031 RMK A01 T00101001  RH  092%=      5-min Rain = 0
KLE1 072056Z 20003KT 01/M00 A3031 RMK A01 T00101001  RH  092%=      5-min Rain = 0
KLE1 072057Z 20002KT 01/M00 A3031 RMK A01 T00101002  RH  092%=      5-min Rain = 0
KLE1 072058Z 21002KT 01/M00 A3031 RMK A01 T00101003  RH  091%=      5-min Rain = 0
KLE1 072059Z 22002KT 01/M00 A3031 RMK A01 T00101002  RH  092%=      5-min Rain = 0
KLE1 072100Z 21002KT 01/M00 A3031 RMK A01 T00101001  RH  092%=      5-min Rain = 0
KLE1 072101Z 21002KT 01/M00 A3031 RMK A01 T00101001  RH  092%=      5-min Rain = 0
KLE1 072102Z 21002KT 01/M00 A3031 RMK A01 T00101002  RH  092%=      5-min Rain = 0.01
KLE1 072103Z 20002KT 01/M00 A303 RMK A01 T00101001  RH  092%=      5-min Rain = 0
KLE1 072104Z 18002KT 01/00 A303 RMK A01 T00110000  RH  093%=      5-min Rain = 0
KLE1 072105Z 19002KT 01/M00 A303 RMK A01 T00111001  RH  092%=      5-min Rain = 0
KLE1 072106Z 19002KT 01/M00 A303 RMK A01 T00111002  RH  092%=      5-min Rain = 0
KLE1 072107Z 19002KT 01/M00 A303 RMK A01 T00101002  RH  091%=      5-min Rain = 0
KLE1 072108Z 20002KT 01/M00 A303 RMK A01 T00101003  RH  091%=      5-min Rain = 0
KLE1 072109Z 19001KT 01/M00 A303 RMK A01 T00101003  RH  091%=      5-min Rain = 0
KLE1 072110Z 20002KT 01/M00 A303 RMK A01 T00101002  RH  092%=      5-min Rain = 0
KLE1 072111Z 19002KT 01/M00 A303 RMK A01 T00101003  RH  091%=      5-min Rain = 0
KLE1 072112Z 21002KT 01/M00 A303 RMK A01 T00101002  RH  091%=      5-min Rain = 0
KLE1 072113Z 22002KT 01/M00 A303 RMK A01 T00111001  RH  092%=      5-min Rain = 0
KLE1 072114Z 21002KT 01/00 A303 RMK A01 T001100-0  RH  092%=      5-min Rain = 0
KLE1 072115Z 22001KT 01/00 A303 RMK A01 T00120001  RH  093%=      5-min Rain = 0
KLE1 072116Z 23002KT 01/00 A303 RMK A01 T00120001  RH  093%=      5-min Rain = 0
KLE1 072117Z 22002KT 01/00 A303 RMK A01 T00120001  RH  093%=      5-min Rain = 0
KLE1 072118Z 22002KT 01/00 A303 RMK A01 T00120001  RH  093%=      5-min Rain = 0
KLE1 072119Z 22002KT 01/00 A303 RMK A01 T00120002  RH  093%=      5-min Rain = 0
KLE1 072120Z 22002KT 01/00 A303 RMK A01 T001200-0  RH  092%=      5-min Rain = 0
KLE1 072121Z 20001KT 01/M00 A303 RMK A01 T00111003  RH  091%=      5-min Rain = 0
KLE1 072122Z 18002KT 01/M00 A303 RMK A01 T00111004  RH  090%=      5-min Rain = 0
KLE1 072123Z 16002KT 01/M00 A303 RMK A01 T00111003  RH  091%=      5-min Rain = 0
KLE1 072124Z 17002KT 01/M00 A303 RMK A01 T00111002  RH  091%=      5-min Rain = 0
KLE1 072125Z 19002KT 01/M00 A303 RMK A01 T00111002  RH  091%=      5-min Rain = 0
KLE1 072126Z 19001KT 01/M00 A303 RMK A01 T00111003  RH  091%=      5-min Rain = 0
KLE1 072127Z 19002KT 01/M00 A303 RMK A01 T00111003  RH  091%=      5-min Rain = 0
KLE1 072128Z 19002KT 01/M00 A303 RMK A01 T00111002  RH  091%=      5-min Rain = 0
KLE1 072129Z 19002KT 01/M00 A303 RMK A01 T00111002  RH  091%=      5-min Rain = 0
KLE1 072130Z 20001KT 01/M00 A303 RMK A01 T00111002  RH  091%=      5-min Rain = 0
KLE1 072131Z 20001KT 01/M00 A303 RMK A01 T00111002  RH  091%=      5-min Rain = 0
KLE1 072132Z 22001KT 01/M00 A303 RMK A01 T00111002  RH  091%=      5-min Rain = 0
KLE1 072133Z 19001KT 01/M00 A303 RMK A01 T00111002  RH  091%=      5-min Rain = 0
KLE1 072134Z 19001KT 01/M00 A303 RMK A01 T00111002  RH  091%=      5-min Rain = 0
KLE1 072135Z 19001KT 01/M00 A303 RMK A01 T00111001  RH  091%=      5-min Rain = 0
KLE1 072136Z 19001KT 01/M00 A303 RMK A01 T00111002  RH  091%=      5-min Rain = 0
KLE1 072137Z 19001KT 01/M00 A303 RMK A01 T00111001  RH  091%=      5-min Rain = 0
KLE1 072138Z 19001KT 01/M00 A303 RMK A01 T00111001  RH  091%=      5-min Rain = 0
KLE1 072139Z 19001KT 01/M00 A303 RMK A01 T00111002  RH  091%=      5-min Rain = 0
KLE1 072140Z 19001KT 01/M00 A303 RMK A01 T00111001  RH  091%=      5-min Rain = 0
KLE1 072141Z 19000KT 01/M00 A3029 RMK A01 T00111002  RH  091%=      5-min Rain = 0
KLE1 072142Z 20001KT 01/M00 A3029 RMK A01 T00111002  RH  091%=      5-min Rain = 0
KLE1 072143Z 20001KT 01/M00 A3029 RMK A01 T00111001  RH  091%=      5-min Rain = 0
KLE1 072144Z 21001KT 01/M00 A3029 RMK A01 T00111001  RH  091%=      5-min Rain = 0
KLE1 072145Z 22002KT 01/M00 A303 RMK A01 T00111002  RH  091%=      5-min Rain = 0
KLE1 072146Z 23002KT 01/M00 A303 RMK A01 T00121001  RH  091%=      5-min Rain = 0
KLE1 072147Z 23002KT 01/M00 A303 RMK A01 T00121001  RH  091%=      5-min Rain = 0
KLE1 072148Z 23001KT 01/M00 A303 RMK A01 T00111002  RH  091%=      5-min Rain = 0
KLE1 072149Z 23001KT 01/M00 A303 RMK A01 T00111002  RH  091%=      5-min Rain = 0
KLE1 072150Z 22001KT 01/M00 A303 RMK A01 T00111002  RH  091%=      5-min Rain = 0
KLE1 072151Z 22002KT 01/M00 A303 RMK A01 T00111002  RH  091%=      5-min Rain = 0
KLE1 072152Z 22002KT 01/M00 A303 RMK A01 T00111001  RH  091%=      5-min Rain = 0
KLE1 072153Z 23001KT 01/M00 A303 RMK A01 T00121001  RH  091%=      5-min Rain = 0
KLE1 072154Z 21001KT 01/M00 A303 RMK A01 T00111002  RH  091%=      5-min Rain = 0
KLE1 072155Z 21002KT 01/M00 A303 RMK A01 T00111001  RH  091%=      5-min Rain = 0
KLE1 072156Z 23002KT 01/M00 A303 RMK A01 T00111001  RH  091%=      5-min Rain = 0
KLE1 072157Z 22001KT 01/M00 A303 RMK A01 T00111001  RH  091%=      5-min Rain = 0
KLE1 072158Z 21001KT 01/M00 A303 RMK A01 T00111003  RH  091%=      5-min Rain = 0
KLE1 072159Z 21001KT 01/M00 A303 RMK A01 T00111003  RH  090%=      5-min Rain = 0
KLE1 072200Z 18002KT 01/M00 A303 RMK A01 T00111002  RH  091%=      5-min Rain = 0
KLE1 072201Z 18002KT 01/M00 A303 RMK A01 T00111001  RH  091%=      5-min Rain = 0
KLE1 072202Z 19002KT 01/M00 A303 RMK A01 T00111001  RH  092%=      5-min Rain = 0
KLE1 072203Z 18003KT 01/M00 A303 RMK A01 T00111001  RH  092%=      5-min Rain = 0
KLE1 072204Z 18003KT 01/00 A303 RMK A01 T00120001  RH  092%=      5-min Rain = 0
KLE1 072205Z 17002KT 01/00 A303 RMK A01 T00120001  RH  092%=      5-min Rain = 0
KLE1 072206Z 17002KT 01/00 A303 RMK A01 T00120000  RH  092%=      5-min Rain = 0
KLE1 072207Z 17002KT 01/00 A303 RMK A01 T00120001  RH  092%=      5-min Rain = 0
KLE1 072208Z 19001KT 01/00 A303 RMK A01 T00120000  RH  092%=      5-min Rain = 0
KLE1 072209Z 19001KT 01/00 A303 RMK A01 T00120000  RH  092%=      5-min Rain = 0
KLE1 072210Z 20002KT 01/00 A303 RMK A01 T00120001  RH  092%=      5-min Rain = 0
KLE1 072211Z 20001KT 01/00 A303 RMK A01 T00120000  RH  092%=      5-min Rain = 0
KLE1 072212Z 22002KT 01/00 A303 RMK A01 T00120000  RH  092%=      5-min Rain = 0
KLE1 072213Z 21002KT 01/00 A303 RMK A01 T001200-0  RH  092%=      5-min Rain = 0
KLE1 072214Z 22002KT 01/00 A303 RMK A01 T001200-0  RH  092%=      5-min Rain = 0
KLE1 072215Z 22002KT 01/00 A3031 RMK A01 T00120001  RH  092%=      5-min Rain = 0
KLE1 072216Z 22002KT 01/00 A3031 RMK A01 T00120001  RH  092%=      5-min Rain = 0
KLE1 072217Z 21002KT 01/00 A3031 RMK A01 T00120000  RH  092%=      5-min Rain = 0
KLE1 072218Z 21002KT 01/00 A3031 RMK A01 T001200-0  RH  092%=      5-min Rain = 0
KLE1 072219Z 21001KT 01/00 A3031 RMK A01 T001200-0  RH  092%=      5-min Rain = 0
KLE1 072220Z 23001KT 01/00 A3031 RMK A01 T00120001  RH  092%=      5-min Rain = 0
KLE1 072221Z 23001KT 01/00 A3031 RMK A01 T00120001  RH  092%=      5-min Rain = 0
KLE1 072222Z 24001KT 01/00 A3031 RMK A01 T00120001  RH  092%=      5-min Rain = 0
KLE1 072223Z 26001KT 01/00 A3031 RMK A01 T001200-0  RH  092%=      5-min Rain = 0
KLE1 072224Z 23001KT 01/00 A3031 RMK A01 T00120000  RH  092%=      5-min Rain = 0
KLE1 072225Z 23001KT 01/00 A3031 RMK A01 T00120000  RH  092%=      5-min Rain = 0
KLE1 072226Z 23000KT 01/00 A3031 RMK A01 T00120000  RH  092%=      5-min Rain = 0
KLE1 072227Z 23000KT 01/00 A3031 RMK A01 T00130002  RH  092%=      5-min Rain = 0
KLE1 072228Z 00000KT 01/00 A303 RMK A01 T00130002  RH  092%=      5-min Rain = 0
KLE1 072229Z 00000KT 01/00 A303 RMK A01 T00130001  RH  092%=      5-min Rain = 0
KLE1 072230Z 00000KT 01/00 A303 RMK A01 T00130001  RH  092%=      5-min Rain = 0
KLE1 072231Z 00000KT 01/00 A303 RMK A01 T00130000  RH  091%=      5-min Rain = 0
KLE1 072232Z 00000KT 01/00 A303 RMK A01 T001300-0  RH  091%=      5-min Rain = 0
KLE1 072233Z 00000KT 01/M00 A303 RMK A01 T00131001  RH  090%=      5-min Rain = 0
KLE1 072234Z 00000KT 01/M00 A303 RMK A01 T00131002  RH  090%=      5-min Rain = 0
KLE1 072235Z 00000KT 01/M00 A303 RMK A01 T00131002  RH  090%=      5-min Rain = 0
KLE1 072236Z 00000KT 01/M00 A303 RMK A01 T00131002  RH  090%=      5-min Rain = 0
KLE1 072237Z 08000KT 01/M00 A303 RMK A01 T00131001  RH  091%=      5-min Rain = 0
KLE1 072238Z 00000KT 01/00 A303 RMK A01 T00130000  RH  091%=      5-min Rain = 0
KLE1 072239Z 08000KT 01/00 A303 RMK A01 T00130000  RH  091%=      5-min Rain = 0
KLE1 072240Z 08000KT 01/M00 A303 RMK A01 T00131001  RH  091%=      5-min Rain = 0
KLE1 072241Z 10001KT 01/M00 A303 RMK A01 T00131001  RH  090%=      5-min Rain = 0
KLE1 072242Z 09001KT 01/M00 A303 RMK A01 T00131001  RH  091%=      5-min Rain = 0
KLE1 072243Z 09002KT 01/00 A303 RMK A01 T001300-0  RH  091%=      5-min Rain = 0
KLE1 072244Z 08001KT 01/00 A303 RMK A01 T001300-0  RH  091%=      5-min Rain = 0
KLE1 072245Z 07002KT 01/M00 A303 RMK A01 T00131001  RH  090%=      5-min Rain = 0
KLE1 072246Z 08001KT 01/M00 A303 RMK A01 T00131001  RH  091%=      5-min Rain = 0
KLE1 072247Z 08001KT 01/00 A303 RMK A01 T001300-0  RH  091%=      5-min Rain = 0
KLE1 072248Z 08001KT 01/00 A303 RMK A01 T001300-0  RH  091%=      5-min Rain = 0
KLE1 072249Z 08001KT 01/M00 A303 RMK A01 T00131001  RH  091%=      5-min Rain = 0
KLE1 072250Z 08001KT 01/M00 A303 RMK A01 T00131001  RH  091%=      5-min Rain = 0
KLE1 072251Z 08000KT 01/M00 A303 RMK A01 T00131001  RH  090%=      5-min Rain = 0
KLE1 072252Z 00000KT 01/M00 A303 RMK A01 T00131001  RH  091%=      5-min Rain = 0
KLE1 072253Z 00000KT 01/M00 A303 RMK A01 T00131001  RH  091%=      5-min Rain = 0
KLE1 072254Z 00000KT 01/M00 A303 RMK A01 T00121002  RH  090%=      5-min Rain = 0
KLE1 072255Z 00000KT 01/M00 A303 RMK A01 T00121002  RH  090%=      5-min Rain = 0
KLE1 072256Z 00000KT 01/M00 A303 RMK A01 T00121002  RH  090%=      5-min Rain = 0
KLE1 072257Z 08000KT 01/M00 A303 RMK A01 T00121001  RH  091%=      5-min Rain = 0
KLE1 072258Z 08000KT 01/M00 A303 RMK A01 T00121001  RH  091%=      5-min Rain = 0
KLE1 072259Z 08000KT 01/00 A303 RMK A01 T00130000  RH  091%=      5-min Rain = 0
KLE1 072300Z 08000KT 01/00 A303 RMK A01 T00130000  RH  091%=      5-min Rain = 0
KLE1 072301Z 08000KT 01/00 A303 RMK A01 T00130001  RH  092%=      5-min Rain = 0
KLE1 072302Z 08001KT 01/00 A303 RMK A01 T00130001  RH  092%=      5-min Rain = 0
KLE1 072303Z 10001KT 01/00 A303 RMK A01 T00130001  RH  092%=      5-min Rain = 0
KLE1 072304Z 10002KT 01/00 A303 RMK A01 T00130001  RH  092%=      5-min Rain = 0
KLE1 072305Z 11002KT 01/00 A303 RMK A01 T00130001  RH  092%=      5-min Rain = 0
KLE1 072306Z 11002KT 01/00 A3029 RMK A01 T00130001  RH  092%=      5-min Rain = 0
KLE1 072307Z 10002KT 01/00 A3029 RMK A01 T00130002  RH  092%=      5-min Rain = 0
KLE1 072308Z 10002KT 01/00 A3029 RMK A01 T00130002  RH  092%=      5-min Rain = 0
KLE1 072309Z 11003KT 01/00 A3029 RMK A01 T00130002  RH  092%=      5-min Rain = 0
KLE1 072310Z 11003KT 01/00 A3029 RMK A01 T00130002  RH  093%=      5-min Rain = 0
KLE1 072311Z 11003KT 01/00 A3029 RMK A01 T00130002  RH  093%=      5-min Rain = 0
KLE1 072312Z 10003KT 01/00 A3029 RMK A01 T00130003  RH  093%=      5-min Rain = 0
KLE1 072313Z 10003KT 01/00 A3029 RMK A01 T00130003  RH  093%=      5-min Rain = 0
KLE1 072314Z 11003KT 01/00 A3029 RMK A01 T00130003  RH  093%=      5-min Rain = 0
KLE1 072315Z 12003KT 01/00 A3029 RMK A01 T00130003  RH  093%=      5-min Rain = 0
KLE1 072316Z 12003KT 01/00 A3029 RMK A01 T00130002  RH  093%=      5-min Rain = 0
KLE1 072317Z 11003KT 01/00 A3029 RMK A01 T00130002  RH  093%=      5-min Rain = 0
KLE1 072318Z 11002KT 01/00 A303 RMK A01 T00130002  RH  092%=      5-min Rain = 0
KLE1 072319Z 12002KT 01/00 A303 RMK A01 T00130001  RH  092%=      5-min Rain = 0
KLE1 072320Z 14003KT 01/00 A303 RMK A01 T00130002  RH  092%=      5-min Rain = 0
KLE1 072321Z 15002KT 01/00 A303 RMK A01 T00130001  RH  092%=      5-min Rain = 0
KLE1 072322Z 16002KT 01/00 A303 RMK A01 T00130001  RH  092%=      5-min Rain = 0
KLE1 072323Z 17002KT 01/00 A303 RMK A01 T00130001  RH  092%=      5-min Rain = 0
KLE1 072324Z 17003KT 01/00 A303 RMK A01 T00130002  RH  092%=      5-min Rain = 0
KLE1 072325Z 17002KT 01/00 A303 RMK A01 T00130002  RH  092%=      5-min Rain = 0
KLE1 072326Z 17002KT 01/00 A303 RMK A01 T00120001  RH  092%=      5-min Rain = 0
KLE1 072327Z 17002KT 01/00 A303 RMK A01 T00120001  RH  092%=      5-min Rain = 0
KLE1 072328Z 17001KT 01/00 A303 RMK A01 T00120001  RH  092%=      5-min Rain = 0
KLE1 072329Z 16002KT 01/00 A303 RMK A01 T00120001  RH  092%=      5-min Rain = 0
KLE1 072330Z 16002KT 01/00 A303 RMK A01 T00120002  RH  093%=      5-min Rain = 0
KLE1 072331Z 15002KT 01/00 A303 RMK A01 T00130002  RH  093%=      5-min Rain = 0
KLE1 072332Z 14002KT 01/00 A303 RMK A01 T00120001  RH  092%=      5-min Rain = 0
KLE1 072333Z 14002KT 01/00 A303 RMK A01 T00120001  RH  092%=      5-min Rain = 0
KLE1 072334Z 14001KT 01/00 A303 RMK A01 T00120001  RH  092%=      5-min Rain = 0
KLE1 072335Z 16001KT 01/00 A3031 RMK A01 T00130001  RH  092%=      5-min Rain = 0
KLE1 072336Z 17001KT 01/00 A3031 RMK A01 T00120000  RH  092%=      5-min Rain = 0
KLE1 072337Z 17001KT 01/00 A3031 RMK A01 T00120000  RH  092%=      5-min Rain = 0
KLE1 072338Z 17001KT 01/00 A3031 RMK A01 T00120000  RH  092%=      5-min Rain = 0
KLE1 072339Z 17002KT 01/00 A3031 RMK A01 T00120001  RH  092%=      5-min Rain = 0
KLE1 072340Z 17002KT 01/00 A3031 RMK A01 T00120001  RH  092%=      5-min Rain = 0
KLE1 072341Z 17001KT 01/00 A3031 RMK A01 T00120001  RH  092%=      5-min Rain = 0
KLE1 072342Z 17002KT 01/00 A3031 RMK A01 T00120001  RH  092%=      5-min Rain = 0
KLE1 072343Z 17002KT 01/00 A3031 RMK A01 T00120001  RH  092%=      5-min Rain = 0
KLE1 072344Z 17001KT 01/00 A3031 RMK A01 T00120002  RH  093%=      5-min Rain = 0
KLE1 072345Z 17002KT 01/00 A3031 RMK A01 T00120002  RH  093%=      5-min Rain = 0
KLE1 072346Z 17002KT 01/00 A3031 RMK A01 T00120002  RH  093%=      5-min Rain = 0
KLE1 072347Z 18002KT 01/00 A3031 RMK A01 T00120002  RH  093%=      5-min Rain = 0
KLE1 072348Z 17001KT 01/00 A3031 RMK A01 T00120002  RH  093%=      5-min Rain = 0
KLE1 072349Z 17001KT 01/00 A3031 RMK A01 T00120002  RH  093%=      5-min Rain = 0
KLE1 072350Z 16001KT 01/00 A3031 RMK A01 T00120002  RH  093%=      5-min Rain = 0
KLE1 072351Z 14001KT 01/00 A3031 RMK A01 T00120002  RH  093%=      5-min Rain = 0
KLE1 072352Z 15001KT 01/00 A3031 RMK A01 T00120003  RH  093%=      5-min Rain = 0
KLE1 072353Z 15001KT 01/00 A3031 RMK A01 T00120002  RH  093%=      5-min Rain = 0
KLE1 072354Z 14002KT 01/00 A3031 RMK A01 T00130003  RH  093%=      5-min Rain = 0
KLE1 072355Z 13002KT 01/00 A3031 RMK A01 T00130003  RH  093%=      5-min Rain = 0
KLE1 072356Z 14002KT 01/00 A3031 RMK A01 T00130003  RH  093%=      5-min Rain = 0
KLE1 072357Z 15002KT 01/00 A3031 RMK A01 T00130003  RH  093%=      5-min Rain = 0
KLE1 072358Z 15002KT 01/00 A3031 RMK A01 T00130003  RH  093%=      5-min Rain = 0
KLE1 072359Z 15002KT 01/00 A3031 RMK A01 T00130002  RH  093%=      5-min Rain = 0
KLE1 080000Z 14002KT 01/00 A3031 RMK A01 T00130002  RH  093%=      5-min Rain = 0
KLE1 080001Z 14002KT 01/00 A3031 RMK A01 T00130002  RH  093%=      5-min Rain = 0
KLE1 080002Z 15002KT 01/00 A3031 RMK A01 T00120001  RH  092%=      5-min Rain = 0
KLE1 080003Z 15001KT 01/00 A3031 RMK A01 T00120001  RH  092%=      5-min Rain = 0
KLE1 080004Z 14001KT 01/00 A3031 RMK A01 T00120001  RH  093%=      5-min Rain = 0
KLE1 080005Z 14001KT 01/00 A3031 RMK A01 T00120002  RH  093%=      5-min Rain = 0
KLE1 080006Z 14001KT 01/00 A3031 RMK A01 T00130002  RH  093%=      5-min Rain = 0
KLE1 080007Z 15002KT 01/00 A3031 RMK A01 T00130002  RH  093%=      5-min Rain = 0
KLE1 080008Z 15001KT 01/00 A3031 RMK A01 T00130002  RH  093%=      5-min Rain = 0
KLE1 080009Z 15001KT 01/00 A3031 RMK A01 T00130002  RH  093%=      5-min Rain = 0
KLE1 080010Z 15001KT 01/00 A3031 RMK A01 T00130002  RH  092%=      5-min Rain = 0
KLE1 080011Z 15001KT 01/00 A3031 RMK A01 T00130002  RH  092%=      5-min Rain = 0
KLE1 080012Z 15001KT 01/00 A3031 RMK A01 T00130002  RH  092%=      5-min Rain = 0
KLE1 080013Z 00000KT 01/00 A3031 RMK A01 T00130001  RH  092%=      5-min Rain = 0
KLE1 080014Z 15000KT 01/00 A3031 RMK A01 T00130001  RH  092%=      5-min Rain = 0
KLE1 080015Z 15000KT 01/00 A3031 RMK A01 T00130002  RH  092%=      5-min Rain = 0
KLE1 080016Z 15000KT 01/00 A3031 RMK A01 T00130002  RH  092%=      5-min Rain = 0
KLE1 080017Z 15000KT 01/00 A3031 RMK A01 T00130002  RH  092%=      5-min Rain = 0
KLE1 080018Z 15000KT 01/00 A3031 RMK A01 T00130002  RH  092%=      5-min Rain = 0
KLE1 080019Z 00000KT 01/00 A3031 RMK A01 T00130002  RH  092%=      5-min Rain = 0
KLE1 080020Z 00000KT 01/00 A3031 RMK A01 T00130002  RH  092%=      5-min Rain = 0
KLE1 080021Z 00000KT 01/00 A3031 RMK A01 T00130002  RH  092%=      5-min Rain = 0
KLE1 080022Z 00000KT 01/00 A3031 RMK A01 T00130002  RH  092%=      5-min Rain = 0
KLE1 080023Z 00000KT 01/00 A303 RMK A01 T00130002  RH  092%=      5-min Rain = 0
KLE1 080024Z 00000KT 01/00 A303 RMK A01 T00130002  RH  092%=      5-min Rain = 0
KLE1 080025Z 00000KT 01/00 A303 RMK A01 T00130002  RH  092%=      5-min Rain = 0
KLE1 080026Z 00000KT 01/00 A3031 RMK A01 T00130002  RH  092%=      5-min Rain = 0
KLE1 080027Z 00000KT 01/00 A3031 RMK A01 T00130001  RH  092%=      5-min Rain = 0
KLE1 080028Z 04000KT 01/00 A3031 RMK A01 T00120001  RH  092%=      5-min Rain = 0
KLE1 080029Z 04000KT 01/00 A3031 RMK A01 T00130001  RH  092%=      5-min Rain = 0
KLE1 080030Z 00000KT 01/00 A3031 RMK A01 T00130002  RH  092%=      5-min Rain = 0
KLE1 080031Z 03001KT 01/00 A3031 RMK A01 T00130002  RH  092%=      5-min Rain = 0
KLE1 080032Z 02001KT 01/00 A3031 RMK A01 T00130002  RH  092%=      5-min Rain = 0
KLE1 080033Z 01001KT 01/00 A3031 RMK A01 T00130003  RH  093%=      5-min Rain = 0
KLE1 080034Z 01002KT 01/00 A3031 RMK A01 T00140003  RH  092%=      5-min Rain = 0
KLE1 080035Z 01002KT 01/00 A3031 RMK A01 T00140003  RH  092%=      5-min Rain = 0
KLE1 080036Z 01001KT 01/00 A3031 RMK A01 T00140003  RH  093%=      5-min Rain = 0
KLE1 080037Z 03002KT 01/00 A3031 RMK A01 T00140003  RH  093%=      5-min Rain = 0
KLE1 080038Z 03002KT 01/00 A3031 RMK A01 T00140003  RH  093%=      5-min Rain = 0
KLE1 080039Z 03002KT 01/00 A3031 RMK A01 T00140003  RH  093%=      5-min Rain = 0
KLE1 080040Z 04002KT 01/00 A3031 RMK A01 T00140003  RH  093%=      5-min Rain = 0
KLE1 080041Z 04002KT 01/00 A3031 RMK A01 T00140003  RH  093%=      5-min Rain = 0
KLE1 080042Z 03002KT 01/00 A3031 RMK A01 T00140002  RH  092%=      5-min Rain = 0
KLE1 080043Z 02001KT 01/00 A3031 RMK A01 T00130002  RH  092%=      5-min Rain = 0
KLE1 080044Z 02001KT 01/00 A3031 RMK A01 T00140002  RH  092%=      5-min Rain = 0
KLE1 080045Z 02001KT 01/00 A3031 RMK A01 T00140003  RH  092%=      5-min Rain = 0
KLE1 080046Z 04002KT 01/00 A3031 RMK A01 T00140003  RH  092%=      5-min Rain = 0
KLE1 080047Z 03001KT 01/00 A3031 RMK A01 T00140004  RH  093%=      5-min Rain = 0
KLE1 080048Z 04002KT 02/00 A3031 RMK A01 T00150004  RH  093%=      5-min Rain = 0
KLE1 080049Z 04002KT 02/00 A3031 RMK A01 T00150004  RH  093%=      5-min Rain = 0
KLE1 080050Z 03003KT 01/00 A3031 RMK A01 T00140003  RH  092%=      5-min Rain = 0
KLE1 080051Z 05003KT 01/00 A3031 RMK A01 T00140002  RH  092%=      5-min Rain = 0
KLE1 080052Z 05003KT 01/00 A3031 RMK A01 T00140002  RH  092%=      5-min Rain = 0
KLE1 080053Z 06004KT 01/00 A3031 RMK A01 T00140002  RH  092%=      5-min Rain = 0
KLE1 080054Z 06004KT 01/00 A3031 RMK A01 T00140002  RH  091%=      5-min Rain = 0
KLE1 080055Z 05003KT 01/00 A3031 RMK A01 T00140002  RH  092%=      5-min Rain = 0
KLE1 080056Z 05004KT 01/00 A3031 RMK A01 T00140002  RH  092%=      5-min Rain = 0
KLE1 080057Z 05003KT 01/00 A3031 RMK A01 T00140002  RH  092%=      5-min Rain = 0
KLE1 080058Z 05003KT 01/00 A3031 RMK A01 T00140002  RH  092%=      5-min Rain = 0
KLE1 080059Z 05003KT 01/00 A3031 RMK A01 T00140002  RH  092%=      5-min Rain = 0
KLE1 080100Z 06003KT 01/00 A3031 RMK A01 T00140002  RH  092%=      5-min Rain = 0
KLE1 080101Z 06003KT 01/00 A3031 RMK A01 T00140003  RH  092%=      5-min Rain = 0
KLE1 080102Z 06003KT 01/00 A3031 RMK A01 T00140003  RH  092%=      5-min Rain = 0
KLE1 080103Z 06004KT 01/00 A3031 RMK A01 T00140003  RH  093%=      5-min Rain = 0
KLE1 080104Z 06004KT 01/00 A3031 RMK A01 T00140003  RH  093%=      5-min Rain = 0
KLE1 080105Z 07004KT 01/00 A3031 RMK A01 T00140003  RH  093%=      5-min Rain = 0
KLE1 080106Z 07004KT 01/00 A3031 RMK A01 T00140003  RH  092%=      5-min Rain = 0
KLE1 080107Z 07005KT 01/00 A3031 RMK A01 T00140003  RH  092%=      5-min Rain = 0
KLE1 080108Z 07005KT 01/00 A3031 RMK A01 T00140003  RH  092%=      5-min Rain = 0
KLE1 080109Z 07005KT 01/00 A3031 RMK A01 T00140003  RH  092%=      5-min Rain = 0
KLE1 080110Z 07005KT 01/00 A303 RMK A01 T00140003  RH  092%=      5-min Rain = 0
KLE1 080111Z 07004KT 01/00 A303 RMK A01 T00140003  RH  092%=      5-min Rain = 0
KLE1 080112Z 08004KT 01/00 A303 RMK A01 T00140003  RH  092%=      5-min Rain = 0
KLE1 080113Z 08004KT 01/00 A303 RMK A01 T00140004  RH  093%=      5-min Rain = 0
KLE1 080114Z 08004KT 02/00 A303 RMK A01 T00150004  RH  093%=      5-min Rain = 0
KLE1 080115Z 08005KT 01/00 A303 RMK A01 T00140004  RH  093%=      5-min Rain = 0
KLE1 080116Z 09005KT 01/00 A303 RMK A01 T00140004  RH  093%=      5-min Rain = 0
KLE1 080117Z 09004KT 02/00 A303 RMK A01 T00150004  RH  092%=      5-min Rain = 0
KLE1 080118Z 08005KT 02/00 A303 RMK A01 T00150004  RH  092%=      5-min Rain = 0
KLE1 080119Z 09005KT 02/00 A303 RMK A01 T00150003  RH  092%=      5-min Rain = 0
KLE1 080120Z 09005KT 02/00 A303 RMK A01 T00160003  RH  091%=      5-min Rain = 0
KLE1 080121Z 09006KT 02/00 A303 RMK A01 T00160002  RH  090%=      5-min Rain = 0
KLE1 080122Z 09006KT 02/00 A3031 RMK A01 T00160001  RH  090%=      5-min Rain = 0
KLE1 080123Z 10005KT 02/00 A3031 RMK A01 T00160000  RH  089%=      5-min Rain = 0
KLE1 080124Z 10005KT 02/00 A3031 RMK A01 T00170001  RH  090%=      5-min Rain = 0
KLE1 080125Z 09005KT 02/00 A3031 RMK A01 T00160001  RH  090%=      5-min Rain = 0
KLE1 080126Z 10004KT 02/00 A3031 RMK A01 T00160001  RH  089%=      5-min Rain = 0
KLE1 080127Z 08003KT 02/00 A3031 RMK A01 T00160001  RH  090%=      5-min Rain = 0
KLE1 080128Z 09003KT 02/00 A3031 RMK A01 T00160001  RH  090%=      5-min Rain = 0
KLE1 080129Z 09003KT 02/00 A3031 RMK A01 T00160001  RH  090%=      5-min Rain = 0
KLE1 080130Z 10004KT 02/00 A3031 RMK A01 T00160001  RH  090%=      5-min Rain = 0
KLE1 080131Z 09003KT 02/00 A3032 RMK A01 T00160000  RH  089%=      5-min Rain = 0
KLE1 080132Z 11003KT 02/00 A3032 RMK A01 T00160001  RH  090%=      5-min Rain = 0
KLE1 080133Z 10004KT 02/00 A3032 RMK A01 T00160001  RH  090%=      5-min Rain = 0
KLE1 080134Z 10003KT 02/00 A3032 RMK A01 T00150000  RH  090%=      5-min Rain = 0
KLE1 080135Z 10003KT 02/00 A3032 RMK A01 T00150000  RH  090%=      5-min Rain = 0
KLE1 080136Z 11002KT 02/00 A3032 RMK A01 T001500-0  RH  089%=      5-min Rain = 0
KLE1 080137Z 11002KT 02/00 A3032 RMK A01 T001500-0  RH  089%=      5-min Rain = 0
KLE1 080138Z 11003KT 02/00 A3032 RMK A01 T00150000  RH  090%=      5-min Rain = 0
KLE1 080139Z 10003KT 02/00 A3032 RMK A01 T00150000  RH  090%=      5-min Rain = 0
KLE1 080140Z 11002KT 02/00 A3033 RMK A01 T00150000  RH  090%=      5-min Rain = 0
KLE1 080141Z 14002KT 02/00 A3033 RMK A01 T00150001  RH  090%=      5-min Rain = 0
KLE1 080142Z 12003KT 02/00 A3033 RMK A01 T00160001  RH  090%=      5-min Rain = 0
KLE1 080143Z 14002KT 02/00 A3033 RMK A01 T00150001  RH  090%=      5-min Rain = 0
KLE1 080144Z 13002KT 02/00 A3033 RMK A01 T00160002  RH  091%=      5-min Rain = 0
KLE1 080145Z 11002KT 02/00 A3033 RMK A01 T00150001  RH  090%=      5-min Rain = 0
KLE1 080146Z 12002KT 02/00 A3033 RMK A01 T00150001  RH  090%=      5-min Rain = 0
KLE1 080147Z 12002KT 02/00 A3032 RMK A01 T00160002  RH  091%=      5-min Rain = 0
KLE1 080148Z 11002KT 02/00 A3032 RMK A01 T00150002  RH  091%=      5-min Rain = 0
KLE1 080149Z 11002KT 02/00 A3032 RMK A01 T00150002  RH  091%=      5-min Rain = 0
KLE1 080150Z 11002KT 02/00 A3033 RMK A01 T00150001  RH  090%=      5-min Rain = 0
KLE1 080151Z 10002KT 02/00 A3033 RMK A01 T00150001  RH  090%=      5-min Rain = 0
KLE1 080152Z 13001KT 02/00 A3033 RMK A01 T00150000  RH  090%=      5-min Rain = 0
KLE1 080153Z 13001KT 02/00 A3033 RMK A01 T00160000  RH  089%=      5-min Rain = 0
KLE1 080154Z 13002KT 02/00 A3033 RMK A01 T00150000  RH  090%=      5-min Rain = 0
KLE1 080155Z 12001KT 02/00 A3033 RMK A01 T00160000  RH  090%=      5-min Rain = 0
KLE1 080156Z 11002KT 02/00 A3033 RMK A01 T00150000  RH  090%=      5-min Rain = 0
KLE1 080157Z 11001KT 02/00 A3033 RMK A01 T001500-0  RH  089%=      5-min Rain = 0
KLE1 080158Z 13002KT 02/M00 A3033 RMK A01 T00151001  RH  089%=      5-min Rain = 0
KLE1 080159Z 13002KT 02/M00 A3033 RMK A01 T00151001  RH  089%=      5-min Rain = 0
KLE1 080200Z 11002KT 02/M00 A3033 RMK A01 T00151001  RH  089%=      5-min Rain = 0
KLE1 080201Z 10002KT 02/M00 A3034 RMK A01 T00151001  RH  089%=      5-min Rain = 0
KLE1 080202Z 10001KT 02/00 A3034 RMK A01 T001500-0  RH  089%=      5-min Rain = 0
KLE1 080203Z 10002KT 02/M00 A3034 RMK A01 T00151001  RH  089%=      5-min Rain = 0
KLE1 080204Z 09001KT 02/M00 A3034 RMK A01 T00161001  RH  089%=      5-min Rain = 0
KLE1 080205Z 09002KT 02/M00 A3034 RMK A01 T00161001  RH  089%=      5-min Rain = 0
KLE1 080206Z 09002KT 02/M00 A3034 RMK A01 T00151001  RH  089%=      5-min Rain = 0
KLE1 080207Z 09003KT 02/M00 A3034 RMK A01 T00161001  RH  089%=      5-min Rain = 0
KLE1 080208Z 08002KT 02/M00 A3034 RMK A01 T00161001  RH  088%=      5-min Rain = 0
KLE1 080209Z 08002KT 02/M00 A3034 RMK A01 T00161002  RH  088%=      5-min Rain = 0
KLE1 080210Z 08002KT 02/M00 A3034 RMK A01 T00161003  RH  088%=      5-min Rain = 0
KLE1 080211Z 08003KT 02/M00 A3033 RMK A01 T00161002  RH  088%=      5-min Rain = 0
KLE1 080212Z 07002KT 02/M00 A3033 RMK A01 T00161002  RH  088%=      5-min Rain = 0
KLE1 080213Z 07003KT 02/M00 A3033 RMK A01 T00161003  RH  088%=      5-min Rain = 0
KLE1 080214Z 06003KT 02/M00 A3033 RMK A01 T00161003  RH  087%=      5-min Rain = 0
KLE1 080215Z 06003KT 02/M01 A3033 RMK A01 T00161005  RH  086%=      5-min Rain = 0
KLE1 080216Z 05003KT 02/M01 A3033 RMK A01 T00161005  RH  086%=      5-min Rain = 0
KLE1 080217Z 05003KT 02/M01 A3033 RMK A01 T00161005  RH  086%=      5-min Rain = 0
KLE1 080218Z 04003KT 02/M01 A3033 RMK A01 T00161005  RH  086%=      5-min Rain = 0
KLE1 080219Z 04003KT 02/M01 A3033 RMK A01 T00161006  RH  086%=      5-min Rain = 0
KLE1 080220Z 05003KT 02/M01 A3033 RMK A01 T00161006  RH  086%=      5-min Rain = 0
KLE1 080221Z 05003KT 02/M01 A3033 RMK A01 T00161006  RH  086%=      5-min Rain = 0
KLE1 080222Z 06004KT 02/M01 A3033 RMK A01 T00161005  RH  086%=      5-min Rain = 0
KLE1 080223Z 05003KT 02/M01 A3033 RMK A01 T00161006  RH  086%=      5-min Rain = 0
KLE1 080224Z 05004KT 02/M01 A3033 RMK A01 T00161006  RH  085%=      5-min Rain = 0
KLE1 080225Z 05004KT 02/M01 A3033 RMK A01 T00161008  RH  084%=      5-min Rain = 0
KLE1 080226Z 06003KT 02/M01 A3033 RMK A01 T00161011  RH  082%=      5-min Rain = 0
KLE1 080227Z 05003KT 02/M01 A3033 RMK A01 T00161010  RH  083%=      5-min Rain = 0
KLE1 080228Z 05003KT 02/M01 A3033 RMK A01 T00161009  RH  084%=      5-min Rain = 0
KLE1 080229Z 05003KT 02/M01 A3033 RMK A01 T00161009  RH  084%=      5-min Rain = 0
KLE1 080230Z 06004KT 02/M01 A3033 RMK A01 T00161010  RH  083%=      5-min Rain = 0
KLE1 080231Z 06004KT 02/M01 A3033 RMK A01 T00161010  RH  083%=      5-min Rain = 0
KLE1 080232Z 06004KT 02/M01 A3033 RMK A01 T00161010  RH  083%=      5-min Rain = 0
KLE1 080233Z 06004KT 02/M01 A3033 RMK A01 T00161009  RH  083%=      5-min Rain = 0
KLE1 080234Z 06004KT 02/M01 A3033 RMK A01 T00161010  RH  083%=      5-min Rain = 0
KLE1 080235Z 06004KT 02/M01 A3033 RMK A01 T00161010  RH  083%=      5-min Rain = 0
KLE1 080236Z 06004KT 02/M01 A3033 RMK A01 T00161010  RH  083%=      5-min Rain = 0
KLE1 080237Z 06004KT 02/M01 A3033 RMK A01 T00161011  RH  083%=      5-min Rain = 0
KLE1 080238Z 06005KT 02/M01 A3033 RMK A01 T00161011  RH  082%=      5-min Rain = 0
KLE1 080239Z 06004KT 02/M01 A3033 RMK A01 T00161012  RH  082%=      5-min Rain = 0
KLE1 080240Z 06003KT 02/M01 A3033 RMK A01 T00161011  RH  082%=      5-min Rain = 0
KLE1 080241Z 05005KT 02/M01 A3033 RMK A01 T00161010  RH  083%=      5-min Rain = 0
KLE1 080242Z 05006KT 02/M01 A3033 RMK A01 T00151012  RH  082%=      5-min Rain = 0
KLE1 080243Z 05006KT 02/M02 A3033 RMK A01 T00161015  RH  080%=      5-min Rain = 0
KLE1 080244Z 05006KT 02/M02 A3034 RMK A01 T00161017  RH  079%=      5-min Rain = 0
KLE1 080245Z 06007KT 02/M02 A3034 RMK A01 T00161017  RH  079%=      5-min Rain = 0
KLE1 080246Z 05006KT 02/M02 A3034 RMK A01 T00161017  RH  079%=      5-min Rain = 0
KLE1 080247Z 04007KT 02/M02 A3034 RMK A01 T00161017  RH  079%=      5-min Rain = 0
KLE1 080248Z 05006KT 02/M02 A3034 RMK A01 T00161019  RH  078%=      5-min Rain = 0
KLE1 080249Z 09004KT 02/M02 A3034 RMK A01 T00161016  RH  080%=      5-min Rain = 0
KLE1 080250Z 08004KT 02/M01 A3034 RMK A01 T00161013  RH  081%=      5-min Rain = 0
KLE1 080251Z 08004KT 02/M01 A3034 RMK A01 T00161012  RH  082%=      5-min Rain = 0
KLE1 080252Z 07006KT 02/M01 A3034 RMK A01 T00161013  RH  081%=      5-min Rain = 0
KLE1 080253Z 06005KT 02/M02 A3034 RMK A01 T00151015  RH  080%=      5-min Rain = 0
KLE1 080254Z 06005KT 02/M01 A3034 RMK A01 T00161014  RH  081%=      5-min Rain = 0
KLE1 080255Z 06004KT 02/M01 A3034 RMK A01 T00151014  RH  081%=      5-min Rain = 0
KLE1 080256Z 06004KT 02/M01 A3034 RMK A01 T00161013  RH  082%=      5-min Rain = 0
KLE1 080257Z 07004KT 02/M01 A3034 RMK A01 T00151013  RH  082%=      5-min Rain = 0
KLE1 080258Z 05005KT 02/M01 A3035 RMK A01 T00161013  RH  081%=      5-min Rain = 0
KLE1 080259Z 05005KT 02/M02 A3035 RMK A01 T00161016  RH  080%=      5-min Rain = 0
KLE1 080300Z 05006KT 02/M02 A3035 RMK A01 T00161016  RH  079%=      5-min Rain = 0
KLE1 080301Z 06006KT 02/M02 A3035 RMK A01 T00151019  RH  078%=      5-min Rain = 0
KLE1 080302Z 06006KT 02/M02 A3035 RMK A01 T00161019  RH  078%=      5-min Rain = 0
KLE1 080303Z 06007KT 02/M02 A3035 RMK A01 T00151020  RH  077%=      5-min Rain = 0
KLE1 080304Z 06007KT 02/M02 A3035 RMK A01 T00161020  RH  077%=      5-min Rain = 0
KLE1 080305Z 06006KT 02/M02 A3035 RMK A01 T00161020  RH  077%=      5-min Rain = 0
KLE1 080306Z 06006KT 02/M02 A3035 RMK A01 T00151020  RH  077%=      5-min Rain = 0
KLE1 080307Z 06007KT 02/M02 A3035 RMK A01 T00151020  RH  077%=      5-min Rain = 0
KLE1 080308Z 05005KT 02/M02 A3035 RMK A01 T00151021  RH  077%=      5-min Rain = 0
KLE1 080309Z 05004KT 02/M02 A3035 RMK A01 T00151019  RH  078%=      5-min Rain = 0
KLE1 080310Z 07003KT 02/M02 A3035 RMK A01 T00161016  RH  079%=      5-min Rain = 0
KLE1 080311Z 05004KT 02/M02 A3035 RMK A01 T00151015  RH  080%=      5-min Rain = 0
KLE1 080312Z 06006KT 02/M02 A3035 RMK A01 T00151015  RH  080%=      5-min Rain = 0
KLE1 080313Z 06006KT 02/M02 A3035 RMK A01 T00151017  RH  079%=      5-min Rain = 0
KLE1 080314Z 06005KT 02/M02 A3035 RMK A01 T00151020  RH  078%=      5-min Rain = 0
KLE1 080315Z 06005KT 02/M02 A3035 RMK A01 T00151018  RH  079%=      5-min Rain = 0
KLE1 080316Z 06005KT 02/M02 A3035 RMK A01 T00151018  RH  079%=      5-min Rain = 0
KLE1 080317Z 06006KT 02/M02 A3035 RMK A01 T00151018  RH  079%=      5-min Rain = 0
KLE1 080318Z 06006KT 02/M02 A3035 RMK A01 T00151018  RH  079%=      5-min Rain = 0
KLE1 080319Z 06007KT 02/M02 A3035 RMK A01 T00151019  RH  078%=      5-min Rain = 0
KLE1 080320Z 06006KT 02/M02 A3035 RMK A01 T00151020  RH  077%=      5-min Rain = 0
KLE1 080321Z 06007KT 02/M02 A3035 RMK A01 T00151020  RH  078%=      5-min Rain = 0
KLE1 080322Z 06007KT 02/M02 A3035 RMK A01 T00151020  RH  078%=      5-min Rain = 0
KLE1 080323Z 06007KT 02/M02 A3035 RMK A01 T00151019  RH  078%=      5-min Rain = 0
KLE1 080324Z 06007KT 01/M02 A3035 RMK A01 T00141019  RH  079%=      5-min Rain = 0
KLE1 080325Z 06007KT 01/M02 A3035 RMK A01 T00141018  RH  079%=      5-min Rain = 0
KLE1 080326Z 06008KT 01/M02 A3035 RMK A01 T00141018  RH  079%=      5-min Rain = 0
KLE1 080327Z 06006KT 01/M02 A3035 RMK A01 T00141019  RH  079%=      5-min Rain = 0
KLE1 080328Z 05007KT 01/M02 A3035 RMK A01 T00141018  RH  079%=      5-min Rain = 0
KLE1 080329Z 05006KT 01/M02 A3035 RMK A01 T00141019  RH  079%=      5-min Rain = 0
KLE1 080330Z 06007KT 01/M02 A3035 RMK A01 T00141018  RH  079%=      5-min Rain = 0
KLE1 080331Z 06006KT 01/M02 A3035 RMK A01 T00141019  RH  079%=      5-min Rain = 0
KLE1 080332Z 07006KT 01/M02 A3036 RMK A01 T00141019  RH  079%=      5-min Rain = 0
KLE1 080333Z 07005KT 01/M02 A3036 RMK A01 T00141020  RH  078%=      5-min Rain = 0
KLE1 080334Z 07005KT 01/M02 A3036 RMK A01 T00141018  RH  079%=      5-min Rain = 0
KLE1 080335Z 07005KT 01/M02 A3036 RMK A01 T00141018  RH  080%=      5-min Rain = 0
KLE1 080336Z 07004KT 01/M02 A3036 RMK A01 T00131018  RH  080%=      5-min Rain = 0
KLE1 080337Z 07004KT 01/M02 A3035 RMK A01 T00131018  RH  080%=      5-min Rain = 0
KLE1 080338Z 07005KT 01/M02 A3035 RMK A01 T00131017  RH  080%=      5-min Rain = 0
KLE1 080339Z 08005KT 01/M02 A3035 RMK A01 T00131017  RH  081%=      5-min Rain = 0
KLE1 080340Z 07005KT 01/M02 A3035 RMK A01 T00131017  RH  081%=      5-min Rain = 0
KLE1 080341Z 07004KT 01/M02 A3035 RMK A01 T00131016  RH  081%=      5-min Rain = 0
KLE1 080342Z 07005KT 01/M02 A3035 RMK A01 T00131016  RH  081%=      5-min Rain = 0
KLE1 080343Z 07005KT 01/M02 A3035 RMK A01 T00121016  RH  082%=      5-min Rain = 0
KLE1 080344Z 05005KT 01/M02 A3035 RMK A01 T00121016  RH  082%=      5-min Rain = 0
KLE1 080345Z 05005KT 01/M02 A3035 RMK A01 T00121018  RH  080%=      5-min Rain = 0
KLE1 080346Z 05005KT 01/M02 A3034 RMK A01 T00121021  RH  079%=      5-min Rain = 0
KLE1 080347Z 04005KT 01/M02 A3034 RMK A01 T00131020  RH  079%=      5-min Rain = 0
KLE1 080348Z 05005KT 01/M02 A3034 RMK A01 T00131019  RH  079%=      5-min Rain = 0
KLE1 080349Z 05005KT 01/M02 A3034 RMK A01 T00131017  RH  080%=      5-min Rain = 0
KLE1 080350Z 05006KT 01/M02 A3034 RMK A01 T00131017  RH  081%=      5-min Rain = 0
KLE1 080351Z 05008KT 01/M02 A3034 RMK A01 T00131018  RH  080%=      5-min Rain = 0
KLE1 080352Z 04008KT 01/M02 A3034 RMK A01 T00131021  RH  078%=      5-min Rain = 0
KLE1 080353Z 05009KT 01/M02 A3034 RMK A01 T00131022  RH  078%=      5-min Rain = 0
KLE1 080354Z 05008KT 01/M02 A3034 RMK A01 T00131022  RH  078%=      5-min Rain = 0
KLE1 080355Z 04008KT 01/M02 A3034 RMK A01 T00131023  RH  077%=      5-min Rain = 0
KLE1 080356Z 05007KT 01/M02 A3034 RMK A01 T00131021  RH  078%=      5-min Rain = 0
KLE1 080357Z 05008KT 01/M02 A3034 RMK A01 T00131020  RH  079%=      5-min Rain = 0
KLE1 080358Z 04009KT 01/M02 A3034 RMK A01 T00131020  RH  079%=      5-min Rain = 0
KLE1 080359Z 04010KT 01/M02 A3034 RMK A01 T00121022  RH  078%=      5-min Rain = 0
KLE1 080400Z 04009KT 01/M02 A3034 RMK A01 T00121021  RH  078%=      5-min Rain = 0
KLE1 080401Z 04010KT 01/M02 A3034 RMK A01 T00121021  RH  078%=      5-min Rain = 0
KLE1 080402Z 04008KT 01/M02 A3034 RMK A01 T00121022  RH  078%=      5-min Rain = 0
KLE1 080403Z 04009KT 01/M02 A3034 RMK A01 T00121021  RH  079%=      5-min Rain = 0
KLE1 080404Z 04009KT 01/M02 A3034 RMK A01 T00121022  RH  078%=      5-min Rain = 0
KLE1 080405Z 04008KT 01/M02 A3034 RMK A01 T00121022  RH  078%=      5-min Rain = 0
KLE1 080406Z 04007KT 01/M02 A3034 RMK A01 T00121021  RH  079%=      5-min Rain = 0
KLE1 080407Z 04008KT 01/M02 A3034 RMK A01 T00111020  RH  079%=      5-min Rain = 0
KLE1 080408Z 05009KT 01/M02 A3034 RMK A01 T00111020  RH  079%=      5-min Rain = 0
KLE1 080409Z 04008KT 01/M02 A3034 RMK A01 T00111021  RH  079%=      5-min Rain = 0
KLE1 080410Z 04009KT 01/M02 A3034 RMK A01 T00111021  RH  080%=      5-min Rain = 0
KLE1 080411Z 04008KT 01/M02 A3034 RMK A01 T00111021  RH  079%=      5-min Rain = 0
KLE1 080412Z 04008KT 01/M02 A3034 RMK A01 T00111021  RH  079%=      5-min Rain = 0
KLE1 080413Z 05007KT 01/M02 A3034 RMK A01 T00111021  RH  079%=      5-min Rain = 0
KLE1 080414Z 06006KT 01/M02 A3034 RMK A01 T00101020  RH  080%=      5-min Rain = 0
KLE1 080415Z 05006KT 01/M02 A3034 RMK A01 T00111019  RH  080%=      5-min Rain = 0
KLE1 080416Z 06007KT 01/M02 A3034 RMK A01 T00101020  RH  080%=      5-min Rain = 0
KLE1 080417Z 06006KT 01/M02 A3035 RMK A01 T00111019  RH  080%=      5-min Rain = 0
KLE1 080418Z 06005KT 01/M02 A3035 RMK A01 T00101019  RH  081%=      5-min Rain = 0
KLE1 080419Z 07005KT 01/M02 A3035 RMK A01 T00101019  RH  081%=      5-min Rain = 0
KLE1 080420Z 06005KT 01/M02 A3035 RMK A01 T00101019  RH  081%=      5-min Rain = 0
KLE1 080421Z 07004KT 01/M02 A3035 RMK A01 T00101018  RH  082%=      5-min Rain = 0
KLE1 080422Z 07004KT 01/M02 A3035 RMK A01 T00101017  RH  082%=      5-min Rain = 0
KLE1 080423Z 07003KT 01/M02 A3035 RMK A01 T00101017  RH  082%=      5-min Rain = 0
KLE1 080424Z 06004KT 01/M02 A3034 RMK A01 T00101016  RH  083%=      5-min Rain = 0
KLE1 080425Z 06004KT 01/M02 A3034 RMK A01 T00101015  RH  084%=      5-min Rain = 0
KLE1 080426Z 07004KT 01/M02 A3034 RMK A01 T00101015  RH  084%=      5-min Rain = 0
KLE1 080427Z 08005KT 01/M02 A3034 RMK A01 T00101015  RH  084%=      5-min Rain = 0
KLE1 080428Z 07005KT 01/M02 A3035 RMK A01 T00101015  RH  083%=      5-min Rain = 0
KLE1 080429Z 07006KT 01/M02 A3035 RMK A01 T00091016  RH  083%=      5-min Rain = 0
KLE1 080430Z 07005KT 01/M02 A3035 RMK A01 T00101016  RH  083%=      5-min Rain = 0
KLE1 080431Z 07005KT 01/M02 A3035 RMK A01 T00101015  RH  083%=      5-min Rain = 0
KLE1 080432Z 07006KT 01/M02 A3035 RMK A01 T00101015  RH  084%=      5-min Rain = 0
KLE1 080433Z 06006KT 01/M02 A3035 RMK A01 T00091015  RH  084%=      5-min Rain = 0
KLE1 080434Z 07007KT 01/M02 A3034 RMK A01 T00091017  RH  083%=      5-min Rain = 0
KLE1 080435Z 06007KT 01/M02 A3034 RMK A01 T00091017  RH  083%=      5-min Rain = 0
KLE1 080436Z 06008KT 01/M02 A3034 RMK A01 T00091016  RH  083%=      5-min Rain = 0
KLE1 080437Z 06008KT 01/M02 A3034 RMK A01 T00091017  RH  083%=      5-min Rain = 0
KLE1 080438Z 06007KT 01/M02 A3034 RMK A01 T00081018  RH  083%=      5-min Rain = 0
KLE1 080439Z 07007KT 01/M02 A3034 RMK A01 T00091017  RH  083%=      5-min Rain = 0
KLE1 080440Z 07007KT 01/M02 A3034 RMK A01 T00081017  RH  083%=      5-min Rain = 0
KLE1 080441Z 07008KT 01/M02 A3034 RMK A01 T00081018  RH  083%=      5-min Rain = 0
KLE1 080442Z 06007KT 01/M02 A3034 RMK A01 T00081018  RH  083%=      5-min Rain = 0
KLE1 080443Z 06007KT 01/M02 A3034 RMK A01 T00071019  RH  083%=      5-min Rain = 0
KLE1 080444Z 06006KT 01/M02 A3034 RMK A01 T00081018  RH  083%=      5-min Rain = 0
KLE1 080445Z 06006KT 01/M02 A3034 RMK A01 T00081018  RH  083%=      5-min Rain = 0
KLE1 080446Z 06006KT 01/M02 A3034 RMK A01 T00081018  RH  083%=      5-min Rain = 0
KLE1 080447Z 06006KT 01/M02 A3034 RMK A01 T00081018  RH  083%=      5-min Rain = 0
KLE1 080448Z 07006KT 01/M02 A3034 RMK A01 T00071018  RH  083%=      5-min Rain = 0
KLE1 080449Z 07006KT 01/M02 A3034 RMK A01 T00071018  RH  083%=      5-min Rain = 0
KLE1 080450Z 07005KT 01/M02 A3034 RMK A01 T00071017  RH  084%=      5-min Rain = 0
KLE1 080451Z 07005KT 01/M02 A3034 RMK A01 T00071016  RH  084%=      5-min Rain = 0
KLE1 080452Z 07005KT 01/M02 A3034 RMK A01 T00071016  RH  085%=      5-min Rain = 0
KLE1 080453Z 07006KT 01/M02 A3034 RMK A01 T00071015  RH  085%=      5-min Rain = 0
KLE1 080454Z 07005KT 01/M02 A3034 RMK A01 T00071015  RH  086%=      5-min Rain = 0
KLE1 080455Z 07004KT 01/M02 A3035 RMK A01 T00071015  RH  086%=      5-min Rain = 0
KLE1 080456Z 06004KT 01/M01 A3035 RMK A01 T00071014  RH  086%=      5-min Rain = 0
KLE1 080457Z 06005KT 01/M01 A3035 RMK A01 T00071014  RH  086%=      5-min Rain = 0
KLE1 080458Z 06005KT 01/M01 A3035 RMK A01 T00071014  RH  086%=      5-min Rain = 0
KLE1 080459Z 07005KT 01/M02 A3035 RMK A01 T00071015  RH  086%=      5-min Rain = 0
KLE1 080500Z 06007KT 01/M02 A3035 RMK A01 T00071015  RH  086%=      5-min Rain = 0
KLE1 080501Z 05007KT 01/M02 A3035 RMK A01 T00071016  RH  085%=      5-min Rain = 0
KLE1 080502Z 06007KT 01/M02 A3035 RMK A01 T00071017  RH  084%=      5-min Rain = 0
KLE1 080503Z 06008KT 01/M02 A3035 RMK A01 T00071016  RH  084%=      5-min Rain = 0
KLE1 080504Z 06008KT 01/M02 A3034 RMK A01 T00071017  RH  084%=      5-min Rain = 0
KLE1 080505Z 06007KT 01/M02 A3034 RMK A01 T00071018  RH  084%=      5-min Rain = 0
KLE1 080506Z 06007KT 01/M02 A3034 RMK A01 T00071017  RH  084%=      5-min Rain = 0
KLE1 080507Z 05008KT 01/M02 A3034 RMK A01 T00071017  RH  084%=      5-min Rain = 0
KLE1 080508Z 05008KT 01/M02 A3034 RMK A01 T00071017  RH  084%=      5-min Rain = 0
KLE1 080509Z 05009KT 01/M02 A3034 RMK A01 T00071017  RH  084%=      5-min Rain = 0
KLE1 080510Z 05009KT 01/M02 A3034 RMK A01 T00071018  RH  084%=      5-min Rain = 0
KLE1 080511Z 04008KT 01/M02 A3034 RMK A01 T00071018  RH  083%=      5-min Rain = 0
KLE1 080512Z 05009KT 01/M02 A3034 RMK A01 T00071018  RH  083%=      5-min Rain = 0
KLE1 080513Z 05009KT 01/M02 A3034 RMK A01 T00071018  RH  083%=      5-min Rain = 0
KLE1 080514Z 05008KT 01/M02 A3034 RMK A01 T00071018  RH  084%=      5-min Rain = 0
KLE1 080515Z 05009KT 01/M02 A3033 RMK A01 T00071017  RH  084%=      5-min Rain = 0
KLE1 080516Z 05007KT 01/M02 A3033 RMK A01 T00071017  RH  084%=      5-min Rain = 0
KLE1 080517Z 05006KT 01/M02 A3033 RMK A01 T00071017  RH  084%=      5-min Rain = 0
KLE1 080518Z 05008KT 01/M02 A3033 RMK A01 T00071016  RH  084%=      5-min Rain = 0
KLE1 080519Z 05006KT 01/M02 A3033 RMK A01 T00071017  RH  084%=      5-min Rain = 0
KLE1 080520Z 05006KT 01/M02 A3033 RMK A01 T00071016  RH  084%=      5-min Rain = 0
KLE1 080521Z 05007KT 01/M02 A3033 RMK A01 T00071017  RH  084%=      5-min Rain = 0
KLE1 080522Z 05006KT 01/M02 A3033 RMK A01 T00071017  RH  084%=      5-min Rain = 0
KLE1 080523Z 05008KT 01/M02 A3033 RMK A01 T00071016  RH  084%=      5-min Rain = 0
KLE1 080524Z 05006KT 01/M02 A3033 RMK A01 T00071017  RH  084%=      5-min Rain = 0
KLE1 080525Z 04007KT 01/M02 A3033 RMK A01 T00071017  RH  084%=      5-min Rain = 0
KLE1 080526Z 04008KT 01/M02 A3033 RMK A01 T00071018  RH  083%=      5-min Rain = 0
KLE1 080527Z 04008KT 01/M02 A3033 RMK A01 T00071019  RH  083%=      5-min Rain = 0
KLE1 080528Z 04006KT 01/M02 A3033 RMK A01 T00081018  RH  083%=      5-min Rain = 0
KLE1 080529Z 03006KT 01/M02 A3033 RMK A01 T00081018  RH  083%=      5-min Rain = 0
KLE1 080530Z 04009KT 01/M02 A3033 RMK A01 T00081017  RH  083%=      5-min Rain = 0
KLE1 080531Z 04008KT 01/M02 A3033 RMK A01 T00071018  RH  083%=      5-min Rain = 0
KLE1 080532Z 04008KT 01/M02 A3034 RMK A01 T00081018  RH  083%=      5-min Rain = 0
KLE1 080533Z 04006KT 01/M02 A3034 RMK A01 T00081017  RH  083%=      5-min Rain = 0
KLE1 080534Z 04006KT 01/M02 A3034 RMK A01 T00081017  RH  084%=      5-min Rain = 0
KLE1 080535Z 03006KT 01/M02 A3034 RMK A01 T00081016  RH  084%=      5-min Rain = 0
KLE1 080536Z 03006KT 01/M02 A3034 RMK A01 T00071017  RH  084%=      5-min Rain = 0
KLE1 080537Z 03006KT 01/M02 A3034 RMK A01 T00081017  RH  083%=      5-min Rain = 0
KLE1 080538Z 03006KT 01/M02 A3034 RMK A01 T00081018  RH  083%=      5-min Rain = 0
KLE1 080539Z 02006KT 01/M02 A3034 RMK A01 T00081018  RH  083%=      5-min Rain = 0
KLE1 080540Z 03006KT 01/M02 A3034 RMK A01 T00081018  RH  083%=      5-min Rain = 0
KLE1 080541Z 02006KT 01/M02 A3034 RMK A01 T00081019  RH  082%=      5-min Rain = 0
KLE1 080542Z 02006KT 01/M02 A3034 RMK A01 T00081019  RH  082%=      5-min Rain = 0
KLE1 080543Z 03006KT 01/M02 A3034 RMK A01 T00081018  RH  083%=      5-min Rain = 0
KLE1 080544Z 01006KT 01/M02 A3035 RMK A01 T00081017  RH  083%=      5-min Rain = 0
KLE1 080545Z 01007KT 01/M02 A3035 RMK A01 T00081017  RH  084%=      5-min Rain = 0
KLE1 080546Z 02006KT 01/M02 A3035 RMK A01 T00081016  RH  084%=      5-min Rain = 0
KLE1 080547Z 02008KT 01/M02 A3035 RMK A01 T00081016  RH  084%=      5-min Rain = 0
KLE1 080548Z 01009KT 01/M02 A3035 RMK A01 T00081015  RH  084%=      5-min Rain = 0
KLE1 080549Z 01008KT 01/M02 A3035 RMK A01 T00081015  RH  085%=      5-min Rain = 0
KLE1 080550Z 01008KT 01/M01 A3035 RMK A01 T00071014  RH  086%=      5-min Rain = 0
KLE1 080551Z 01008KT 01/M01 A3035 RMK A01 T00071014  RH  086%=      5-min Rain = 0
KLE1 080552Z 02006KT 01/M01 A3035 RMK A01 T00071013  RH  086%=      5-min Rain = 0
KLE1 080553Z 03006KT 01/M01 A3035 RMK A01 T00071013  RH  087%=      5-min Rain = 0
KLE1 080554Z 02006KT 01/M01 A3035 RMK A01 T00071012  RH  087%=      5-min Rain = 0
KLE1 080555Z 03005KT 01/M01 A3035 RMK A01 T00071012  RH  087%=      5-min Rain = 0
KLE1 080556Z 03005KT 01/M01 A3035 RMK A01 T00071012  RH  087%=      5-min Rain = 0
KLE1 080557Z 03006KT 01/M01 A3035 RMK A01 T00071012  RH  087%=      5-min Rain = 0
KLE1 080558Z 03006KT 01/M01 A3035 RMK A01 T00071012  RH  087%=      5-min Rain = 0
KLE1 080559Z 02005KT 01/M01 A3035 RMK A01 T00061013  RH  087%=      5-min Rain = 0

Page generated in 0.1312 seconds.